Time,TemperatureF,DewpointF,PressureIn,WindDirection,WindDirectionDegrees,WindSpeedMPH,WindSpeedGustMPH,Humidity,HourlyPrecipIn,Conditions,Clouds,dailyrainin,SolarRadiationWatts/m^2,SoftwareType,DateUTC
2013-01-29 00:00:00,69.2,66.8,30.02,SSE,157,4.0,7.0,92,0.00,,---,0.00,0.00,VWS V14.01,2013-01-29 06:00:00,
2013-01-29 00:01:00,69.2,66.8,30.02,South,178,3.0,10.0,92,0.00,,---,0.00,0.00,VWS V14.01,2013-01-29 06:01:00,
2013-01-29 00:04:00,69.2,66.8,30.03,SSE,165,4.0,10.0,92,0.00,,---,0.00,0.00,VWS V14.01,2013-01-29 06:04:00,
2013-01-29 00:05:00,69.2,66.8,30.02,SE,144,6.0,10.0,92,0.00,,---,0.00,0.00,VWS V14.01,2013-01-29 06:05:00,
2013-01-29 00:06:00,69.2,66.8,30.02,SE,146,4.0,10.0,92,0.00,,---,0.00,0.00,VWS V14.01,2013-01-29 06:06:00,
2013-01-29 00:07:00,69.2,66.8,30.02,SE,128,2.0,10.0,92,0.00,,---,0.00,0.00,VWS V14.01,2013-01-29 06:07:00,
2013-01-29 00:10:00,69.2,66.8,30.02,SE,124,5.0,10.0,92,0.00,,---,0.00,0.00,VWS V14.01,2013-01-29 06:10:00,
2013-01-29 00:11:00,69.2,66.8,30.02,SSE,164,4.0,10.0,92,0.00,,---,0.00,0.00,VWS V14.01,2013-01-29 06:11:00,
2013-01-29 00:13:00,69.2,66.8,30.02,ESE,110,3.0,10.0,92,0.00,,---,0.00,0.00,VWS V14.01,2013-01-29 06:13:00,
2013-01-29 00:15:00,69.2,66.8,30.02,SE,132,5.0,10.0,92,0.00,,---,0.00,0.00,VWS V14.01,2013-01-29 06:15:00,
2013-01-29 00:16:00,69.2,66.8,30.02,SE,130,1.0,10.0,92,0.00,,---,0.00,0.00,VWS V14.01,2013-01-29 06:16:00,
2013-01-29 00:18:00,69.2,66.8,30.02,ESE,105,2.0,10.0,92,0.00,,---,0.00,0.00,VWS V14.01,2013-01-29 06:18:00,
2013-01-29 00:20:00,69.2,66.8,30.02,SSE,150,0.0,10.0,92,0.00,,---,0.00,0.00,VWS V14.01,2013-01-29 06:20:00,
2013-01-29 00:22:00,69.2,66.8,30.02,SE,126,3.0,12.0,92,0.00,,---,0.00,0.00,VWS V14.01,2013-01-29 06:22:00,
2013-01-29 00:25:00,69.2,66.8,30.02,East,93,3.0,12.0,92,0.00,,---,0.00,0.00,VWS V14.01,2013-01-29 06:25:00,
2013-01-29 00:28:00,69.2,66.8,30.02,SE,128,2.0,12.0,92,0.00,,---,0.00,0.00,VWS V14.01,2013-01-29 06:28:00,
2013-01-29 00:30:00,69.2,66.8,30.02,SSE,152,4.0,5.0,92,0.00,,---,0.00,0.00,VWS V14.01,2013-01-29 06:30:00,
2013-01-29 00:31:00,69.2,67.1,30.02,SSE,167,7.0,10.0,93,0.00,,---,0.00,0.00,VWS V14.01,2013-01-29 06:31:00,
2013-01-29 00:33:00,69.2,67.1,30.02,SE,140,6.0,10.0,93,0.00,,---,0.00,0.00,VWS V14.01,2013-01-29 06:33:00,
2013-01-29 00:35:00,69.3,67.2,30.02,SE,140,0.0,10.0,93,0.00,,---,0.00,0.00,VWS V14.01,2013-01-29 06:35:00,
2013-01-29 00:36:00,69.2,67.1,30.02,SE,144,1.0,10.0,93,0.00,,---,0.00,0.00,VWS V14.01,2013-01-29 06:36:00,
2013-01-29 00:39:00,69.2,67.1,30.02,SSE,165,3.0,10.0,93,0.00,,---,0.00,0.00,VWS V14.01,2013-01-29 06:39:00,
2013-01-29 00:40:00,69.2,67.1,30.02,SSE,160,6.0,10.0,93,0.00,,---,0.00,0.00,VWS V14.01,2013-01-29 06:40:00,
2013-01-29 00:41:00,69.2,67.1,30.02,SE,126,2.0,10.0,93,0.00,,---,0.00,0.00,VWS V14.01,2013-01-29 06:41:00,
2013-01-29 00:42:00,69.2,67.1,30.02,SE,144,4.0,10.0,93,0.00,,---,0.00,0.00,VWS V14.01,2013-01-29 06:42:00,
2013-01-29 00:44:00,69.3,67.2,30.02,South,185,4.0,10.0,93,0.00,,---,0.00,0.00,VWS V14.01,2013-01-29 06:44:00,
2013-01-29 00:46:00,69.3,67.2,30.02,SSE,149,1.0,10.0,93,0.00,,---,0.00,0.00,VWS V14.01,2013-01-29 06:46:00,
2013-01-29 00:47:00,69.3,67.2,30.02,SSE,150,0.0,10.0,93,0.00,,---,0.00,0.00,VWS V14.01,2013-01-29 06:47:00,
2013-01-29 00:48:00,69.3,67.2,30.02,SE,130,1.0,10.0,93,0.00,,---,0.00,0.00,VWS V14.01,2013-01-29 06:48:00,
2013-01-29 00:50:00,69.3,67.2,30.02,South,173,3.0,10.0,93,0.00,,---,0.00,0.00,VWS V14.01,2013-01-29 06:50:00,
2013-01-29 00:52:00,69.3,67.2,30.02,SSE,148,4.0,10.0,93,0.00,,---,0.00,0.00,VWS V14.01,2013-01-29 06:52:00,
2013-01-29 00:53:00,69.3,67.2,30.02,SSE,148,1.0,10.0,93,0.00,,---,0.00,0.00,VWS V14.01,2013-01-29 06:53:00,
2013-01-29 00:54:00,69.3,67.2,30.02,SSE,148,0.0,10.0,93,0.00,,---,0.00,0.00,VWS V14.01,2013-01-29 06:54:00,
2013-01-29 00:55:00,69.3,67.2,30.02,SE,131,3.0,10.0,93,0.00,,---,0.00,0.00,VWS V14.01,2013-01-29 06:55:00,
2013-01-29 00:58:00,69.3,67.2,30.02,SSE,167,2.0,10.0,93,0.00,,---,0.00,0.00,VWS V14.01,2013-01-29 06:58:00,
2013-01-29 00:59:00,69.3,67.2,30.02,SSE,163,4.0,10.0,93,0.00,,---,0.00,0.00,VWS V14.01,2013-01-29 06:59:00,
2013-01-29 01:00:00,69.3,67.2,30.02,SSE,150,2.0,10.0,93,0.00,,---,0.00,0.00,VWS V14.01,2013-01-29 07:00:00,
2013-01-29 01:02:00,69.3,67.2,30.02,SE,146,2.0,7.0,93,0.00,,---,0.00,0.00,VWS V14.01,2013-01-29 07:02:00,
2013-01-29 01:03:00,69.3,67.2,30.01,SSE,155,0.0,7.0,93,0.00,,---,0.00,0.00,VWS V14.01,2013-01-29 07:03:00,
2013-01-29 01:04:00,69.3,67.2,30.01,SE,142,2.0,7.0,93,0.00,,---,0.00,0.00,VWS V14.01,2013-01-29 07:04:00,
2013-01-29 01:05:00,69.3,67.2,30.01,SE,142,2.0,7.0,93,0.00,,---,0.00,0.00,VWS V14.01,2013-01-29 07:05:00,
2013-01-29 01:07:00,69.3,67.2,30.01,SE,142,3.0,7.0,93,0.00,,---,0.00,0.00,VWS V14.01,2013-01-29 07:07:00,
2013-01-29 01:09:00,69.3,67.2,30.01,SE,136,2.0,7.0,93,0.00,,---,0.00,0.00,VWS V14.01,2013-01-29 07:09:00,
2013-01-29 01:10:00,69.3,67.2,30.01,SE,126,8.0,8.0,93,0.00,,---,0.00,0.00,VWS V14.01,2013-01-29 07:10:00,
2013-01-29 01:12:00,69.3,67.2,30.01,SE,145,3.0,10.0,93,0.00,,---,0.00,0.00,VWS V14.01,2013-01-29 07:12:00,
2013-01-29 01:13:00,69.3,67.2,30.01,SE,134,3.0,10.0,93,0.00,,---,0.00,0.00,VWS V14.01,2013-01-29 07:13:00,
2013-01-29 01:16:00,69.3,67.2,30.01,SE,144,1.0,10.0,93,0.00,,---,0.00,0.00,VWS V14.01,2013-01-29 07:16:00,
2013-01-29 01:17:00,69.4,67.3,30.01,SSE,166,6.0,10.0,93,0.00,,---,0.00,0.00,VWS V14.01,2013-01-29 07:17:00,
2013-01-29 01:18:00,69.4,67.3,30.01,ESE,121,1.0,10.0,93,0.00,,---,0.00,0.00,VWS V14.01,2013-01-29 07:18:00,
2013-01-29 01:21:00,69.4,67.3,30.01,SE,140,1.0,10.0,93,0.00,,---,0.00,0.00,VWS V14.01,2013-01-29 07:21:00,
2013-01-29 01:22:00,69.4,67.3,30.01,SSW,194,5.0,10.0,93,0.00,,---,0.00,0.00,VWS V14.01,2013-01-29 07:22:00,
2013-01-29 01:23:00,69.4,67.3,30.01,SSE,159,4.0,10.0,93,0.00,,---,0.00,0.00,VWS V14.01,2013-01-29 07:23:00,
2013-01-29 01:24:00,69.4,67.3,30.01,South,173,2.0,10.0,93,0.00,,---,0.00,0.00,VWS V14.01,2013-01-29 07:24:00,
2013-01-29 01:28:00,69.4,67.3,30.01,SSE,167,5.0,11.0,93,0.00,,---,0.00,0.00,VWS V14.01,2013-01-29 07:28:00,
2013-01-29 01:30:00,69.4,67.3,30.01,ESE,111,1.0,7.0,93,0.00,,---,0.00,0.00,VWS V14.01,2013-01-29 07:30:00,
2013-01-29 01:33:00,69.4,67.3,30.00,SSE,154,0.0,7.0,93,0.00,,---,0.00,0.00,VWS V14.01,2013-01-29 07:33:00,
2013-01-29 01:34:00,69.4,67.3,30.00,ESE,117,2.0,7.0,93,0.00,,---,0.00,0.00,VWS V14.01,2013-01-29 07:34:00,
2013-01-29 01:35:00,69.4,67.3,30.00,ESE,121,1.0,7.0,93,0.00,,---,0.00,0.00,VWS V14.01,2013-01-29 07:35:00,
2013-01-29 01:39:00,69.4,67.3,30.00,SSE,149,5.0,7.0,93,0.00,,---,0.00,0.00,VWS V14.01,2013-01-29 07:39:00,
2013-01-29 01:41:00,69.4,67.3,30.00,SSE,155,2.0,7.0,93,0.00,,---,0.00,0.00,VWS V14.01,2013-01-29 07:41:00,
2013-01-29 01:44:00,69.4,67.3,30.00,ESE,117,2.0,7.0,93,0.00,,---,0.00,0.00,VWS V14.01,2013-01-29 07:44:00,
2013-01-29 01:45:00,69.4,67.3,30.00,SSE,154,2.0,7.0,93,0.00,,---,0.00,0.00,VWS V14.01,2013-01-29 07:45:00,
2013-01-29 01:46:00,69.4,67.3,30.00,East,98,3.0,7.0,93,0.00,,---,0.00,0.00,VWS V14.01,2013-01-29 07:46:00,
2013-01-29 01:49:00,69.4,67.3,30.00,SE,124,2.0,9.0,93,0.00,,---,0.00,0.00,VWS V14.01,2013-01-29 07:49:00,
2013-01-29 01:51:00,69.4,67.3,30.00,ESE,113,2.0,9.0,93,0.00,,---,0.00,0.00,VWS V14.01,2013-01-29 07:51:00,
2013-01-29 01:52:00,69.4,67.3,30.00,South,177,3.0,9.0,93,0.00,,---,0.00,0.00,VWS V14.01,2013-01-29 07:52:00,
2013-01-29 01:54:00,69.4,67.3,30.00,SSE,150,1.0,9.0,93,0.00,,---,0.00,0.00,VWS V14.01,2013-01-29 07:54:00,
2013-01-29 01:58:00,69.5,67.4,30.00,SE,128,2.0,9.0,93,0.00,,---,0.00,0.00,VWS V14.01,2013-01-29 07:58:00,
2013-01-29 01:59:00,69.4,67.3,30.00,SE,128,1.0,9.0,93,0.00,,---,0.00,0.00,VWS V14.01,2013-01-29 07:59:00,
2013-01-29 02:00:00,69.4,67.3,30.00,SSE,150,4.0,9.0,93,0.00,,---,0.00,0.00,VWS V14.01,2013-01-29 08:00:00,
2013-01-29 02:04:00,69.4,67.3,29.99,SSE,156,4.0,6.0,93,0.00,,---,0.00,0.00,VWS V14.01,2013-01-29 08:04:00,
2013-01-29 02:06:00,69.5,67.4,29.99,SE,134,5.0,10.0,93,0.00,,---,0.00,0.00,VWS V14.01,2013-01-29 08:06:00,
2013-01-29 02:09:00,69.5,67.7,29.99,South,180,3.0,10.0,94,0.00,,---,0.00,0.00,VWS V14.01,2013-01-29 08:09:00,
2013-01-29 02:11:00,69.5,67.7,29.99,ESE,105,2.0,10.0,94,0.00,,---,0.00,0.00,VWS V14.01,2013-01-29 08:11:00,
2013-01-29 02:14:00,69.5,67.7,29.99,SSE,168,4.0,10.0,94,0.00,,---,0.00,0.00,VWS V14.01,2013-01-29 08:14:00,
2013-01-29 02:17:00,69.6,67.5,29.99,SE,126,4.0,10.0,93,0.00,,---,0.00,0.00,VWS V14.01,2013-01-29 08:17:00,
2013-01-29 02:18:00,69.6,67.5,29.99,SE,128,4.0,10.0,93,0.00,,---,0.00,0.00,VWS V14.01,2013-01-29 08:18:00,
2013-01-29 02:20:00,69.6,67.5,29.99,SE,144,2.0,10.0,93,0.00,,---,0.00,0.00,VWS V14.01,2013-01-29 08:20:00,
2013-01-29 02:23:00,69.6,67.5,29.99,SSE,147,3.0,11.0,93,0.00,,---,0.00,0.00,VWS V14.01,2013-01-29 08:23:00,
2013-01-29 02:24:00,69.6,67.5,29.99,SE,134,3.0,11.0,93,0.00,,---,0.00,0.00,VWS V14.01,2013-01-29 08:24:00,
2013-01-29 02:25:00,69.6,67.5,29.99,SE,135,4.0,11.0,93,0.00,,---,0.00,0.00,VWS V14.01,2013-01-29 08:25:00,
2013-01-29 02:28:00,69.7,67.6,29.99,SSE,161,3.0,13.0,93,0.00,,---,0.00,0.00,VWS V14.01,2013-01-29 08:28:00,
2013-01-29 02:29:00,69.7,67.6,29.99,SSE,162,2.0,13.0,93,0.00,,---,0.00,0.00,VWS V14.01,2013-01-29 08:29:00,
2013-01-29 02:30:00,69.7,67.6,29.99,SSE,162,0.0,13.0,93,0.00,,---,0.00,0.00,VWS V14.01,2013-01-29 08:30:00,
2013-01-29 02:31:00,69.7,67.6,29.99,SE,126,1.0,3.0,93,0.00,,---,0.00,0.00,VWS V14.01,2013-01-29 08:31:00,
2013-01-29 02:34:00,69.7,67.6,29.99,SSE,160,5.0,8.0,93,0.00,,---,0.00,0.00,VWS V14.01,2013-01-29 08:34:00,
2013-01-29 02:36:00,69.7,67.6,29.99,ESE,119,2.0,8.0,93,0.00,,---,0.00,0.00,VWS V14.01,2013-01-29 08:36:00,
2013-01-29 02:38:00,69.7,67.6,29.99,SE,140,2.0,8.0,93,0.00,,---,0.00,0.00,VWS V14.01,2013-01-29 08:38:00,
2013-01-29 02:39:00,69.7,67.6,29.99,SE,138,2.0,8.0,93,0.00,,---,0.00,0.00,VWS V14.01,2013-01-29 08:39:00,
2013-01-29 02:40:00,69.7,67.6,29.99,South,188,3.0,8.0,93,0.00,,---,0.00,0.00,VWS V14.01,2013-01-29 08:40:00,
2013-01-29 02:42:00,69.7,67.6,29.99,ESE,118,3.0,9.0,93,0.00,,---,0.00,0.00,VWS V14.01,2013-01-29 08:42:00,
2013-01-29 02:44:00,69.7,67.6,29.98,ESE,112,2.0,9.0,93,0.00,,---,0.00,0.00,VWS V14.01,2013-01-29 08:44:00,
2013-01-29 02:45:00,69.7,67.6,29.98,SSE,160,1.0,9.0,93,0.00,,---,0.00,0.00,VWS V14.01,2013-01-29 08:45:00,
2013-01-29 02:46:00,69.7,67.6,29.98,SE,146,4.0,9.0,93,0.00,,---,0.00,0.00,VWS V14.01,2013-01-29 08:46:00,
2013-01-29 02:48:00,69.8,67.7,29.98,ESE,116,8.0,9.0,93,0.00,,---,0.00,0.00,VWS V14.01,2013-01-29 08:48:00,
2013-01-29 02:50:00,69.8,67.7,29.98,South,170,2.0,12.0,93,0.00,,---,0.00,0.00,VWS V14.01,2013-01-29 08:50:00,
2013-01-29 02:51:00,69.8,67.7,29.98,SSE,151,2.0,12.0,93,0.00,,---,0.00,0.00,VWS V14.01,2013-01-29 08:51:00,
2013-01-29 02:53:00,69.8,67.7,29.98,SSE,160,3.0,12.0,93,0.00,,---,0.00,0.00,VWS V14.01,2013-01-29 08:53:00,
2013-01-29 02:57:00,69.8,67.7,29.98,ESE,106,5.0,12.0,93,0.00,,---,0.00,0.00,VWS V14.01,2013-01-29 08:57:00,
2013-01-29 02:58:00,69.8,67.7,29.97,SE,124,4.0,12.0,93,0.00,,---,0.00,0.00,VWS V14.01,2013-01-29 08:58:00,
2013-01-29 02:59:00,69.8,67.7,29.97,SE,132,1.0,12.0,93,0.00,,---,0.00,0.00,VWS V14.01,2013-01-29 08:59:00,
2013-01-29 03:00:00,69.9,67.8,29.97,SE,142,5.0,12.0,93,0.00,,---,0.00,0.00,VWS V14.01,2013-01-29 09:00:00,
2013-01-29 03:02:00,69.9,67.8,29.97,SSE,165,4.0,14.0,93,0.00,,---,0.00,0.00,VWS V14.01,2013-01-29 09:02:00,
2013-01-29 03:04:00,69.9,67.8,29.97,SE,136,4.0,14.0,93,0.00,,---,0.00,0.00,VWS V14.01,2013-01-29 09:04:00,
2013-01-29 03:05:00,69.9,67.8,29.97,SE,136,6.0,14.0,93,0.00,,---,0.00,0.00,VWS V14.01,2013-01-29 09:05:00,
2013-01-29 03:07:00,69.9,67.8,29.97,ESE,119,14.0,14.0,93,0.00,,---,0.00,0.00,VWS V14.01,2013-01-29 09:07:00,
2013-01-29 03:09:00,69.9,67.8,29.97,WSW,256,7.0,14.0,93,0.00,,---,0.00,0.00,VWS V14.01,2013-01-29 09:09:00,
2013-01-29 03:10:00,69.9,67.8,29.97,SSE,157,8.0,14.0,93,0.00,,---,0.00,0.00,VWS V14.01,2013-01-29 09:10:00,
2013-01-29 03:13:00,69.9,67.5,29.97,SSE,163,4.0,14.0,92,0.00,,---,0.00,0.00,VWS V14.01,2013-01-29 09:13:00,
2013-01-29 03:15:00,69.9,67.8,29.97,East,81,3.0,14.0,93,0.00,,---,0.00,0.00,VWS V14.01,2013-01-29 09:15:00,
2013-01-29 03:19:00,69.9,67.8,29.96,ESE,104,2.0,14.0,93,0.00,,---,0.00,0.00,VWS V14.01,2013-01-29 09:19:00,
2013-01-29 03:20:00,69.9,67.8,29.96,SSE,167,8.0,14.0,93,0.00,,---,0.00,0.00,VWS V14.01,2013-01-29 09:20:00,
2013-01-29 03:21:00,69.9,67.8,29.97,SSE,163,8.0,14.0,93,0.00,,---,0.00,0.00,VWS V14.01,2013-01-29 09:21:00,
2013-01-29 03:25:00,69.9,67.5,29.96,ESE,108,3.0,14.0,92,0.00,,---,0.00,0.00,VWS V14.01,2013-01-29 09:25:00,
2013-01-29 03:26:00,69.9,67.5,29.96,ESE,114,2.0,14.0,92,0.00,,---,0.00,0.00,VWS V14.01,2013-01-29 09:26:00,
2013-01-29 03:29:00,70.0,67.6,29.96,SE,128,4.0,14.0,92,0.00,,---,0.00,0.00,VWS V14.01,2013-01-29 09:29:00,
2013-01-29 03:30:00,70.0,67.6,29.96,SE,144,4.0,4.0,92,0.00,,---,0.00,0.00,VWS V14.01,2013-01-29 09:30:00,
2013-01-29 03:31:00,69.9,67.5,29.96,SE,133,4.0,5.0,92,0.00,,---,0.00,0.00,VWS V14.01,2013-01-29 09:31:00,
2013-01-29 03:34:00,70.0,67.6,29.96,SSE,161,10.0,11.0,92,0.00,,---,0.00,0.00,VWS V14.01,2013-01-29 09:34:00,
2013-01-29 03:35:00,69.9,67.5,29.96,SSE,161,4.0,11.0,92,0.00,,---,0.00,0.00,VWS V14.01,2013-01-29 09:35:00,
2013-01-29 03:36:00,70.0,67.6,29.96,South,188,4.0,11.0,92,0.00,,---,0.00,0.00,VWS V14.01,2013-01-29 09:36:00,
2013-01-29 03:37:00,69.9,67.5,29.96,SE,138,3.0,11.0,92,0.00,,---,0.00,0.00,VWS V14.01,2013-01-29 09:37:00,
2013-01-29 03:40:00,69.9,67.5,29.96,ENE,76,2.0,11.0,92,0.00,,---,0.00,0.00,VWS V14.01,2013-01-29 09:40:00,
2013-01-29 03:41:00,69.9,67.5,29.96,SE,136,4.0,11.0,92,0.00,,---,0.00,0.00,VWS V14.01,2013-01-29 09:41:00,
2013-01-29 03:42:00,69.9,67.8,29.96,SE,139,1.0,11.0,93,0.00,,---,0.00,0.00,VWS V14.01,2013-01-29 09:42:00,
2013-01-29 03:43:00,69.9,67.8,29.96,SE,139,0.0,11.0,93,0.00,,---,0.00,0.00,VWS V14.01,2013-01-29 09:43:00,
2013-01-29 03:46:00,69.9,67.8,29.96,South,175,6.0,12.0,93,0.00,,---,0.00,0.00,VWS V14.01,2013-01-29 09:46:00,
2013-01-29 03:47:00,69.9,67.5,29.96,SSE,155,1.0,12.0,92,0.00,,---,0.00,0.00,VWS V14.01,2013-01-29 09:47:00,
2013-01-29 03:48:00,69.9,67.5,29.96,SSE,153,3.0,12.0,92,0.00,,---,0.00,0.00,VWS V14.01,2013-01-29 09:48:00,
2013-01-29 03:51:00,69.8,67.7,29.96,SSE,148,2.0,12.0,93,0.00,,---,0.00,0.00,VWS V14.01,2013-01-29 09:51:00,
2013-01-29 03:52:00,69.8,67.7,29.96,SSE,157,1.0,12.0,93,0.00,,---,0.00,0.00,VWS V14.01,2013-01-29 09:52:00,
2013-01-29 03:53:00,69.8,67.7,29.96,SSE,157,4.0,12.0,93,0.00,,---,0.00,0.00,VWS V14.01,2013-01-29 09:53:00,
2013-01-29 03:54:00,69.8,67.7,29.96,SSE,159,3.0,12.0,93,0.00,,---,0.00,0.00,VWS V14.01,2013-01-29 09:54:00,
2013-01-29 03:58:00,69.8,67.7,29.96,SSE,150,0.0,12.0,93,0.00,,---,0.00,0.00,VWS V14.01,2013-01-29 09:58:00,
2013-01-29 03:59:00,69.8,67.7,29.96,SSE,149,3.0,12.0,93,0.00,,---,0.00,0.00,VWS V14.01,2013-01-29 09:59:00,
2013-01-29 04:00:00,69.7,67.6,29.96,SE,145,3.0,12.0,93,0.00,,---,0.00,0.00,VWS V14.01,2013-01-29 10:00:00,
2013-01-29 04:03:00,69.7,67.6,29.95,SE,142,6.0,8.0,93,0.00,,---,0.00,0.00,VWS V14.01,2013-01-29 10:03:00,
2013-01-29 04:04:00,69.7,67.6,29.95,SE,136,1.0,8.0,93,0.00,,---,0.00,0.00,VWS V14.01,2013-01-29 10:04:00,
2013-01-29 04:06:00,69.7,67.6,29.95,ESE,105,1.0,8.0,93,0.00,,---,0.00,0.00,VWS V14.01,2013-01-29 10:06:00,
2013-01-29 04:09:00,69.7,67.6,29.95,SE,141,2.0,9.0,93,0.00,,---,0.00,0.00,VWS V14.01,2013-01-29 10:09:00,
2013-01-29 04:10:00,69.7,67.6,29.95,SSE,149,3.0,9.0,93,0.00,,---,0.00,0.00,VWS V14.01,2013-01-29 10:10:00,
2013-01-29 04:11:00,69.7,67.6,29.95,SE,132,1.0,9.0,93,0.00,,---,0.00,0.00,VWS V14.01,2013-01-29 10:11:00,
2013-01-29 04:14:00,69.8,67.7,29.95,South,170,3.0,9.0,93,0.00,,---,0.00,0.00,VWS V14.01,2013-01-29 10:14:00,
2013-01-29 04:15:00,69.8,67.7,29.95,SSE,163,4.0,9.0,93,0.00,,---,0.00,0.00,VWS V14.01,2013-01-29 10:15:00,
2013-01-29 04:17:00,69.8,67.7,29.95,SSE,153,3.0,9.0,93,0.00,,---,0.00,0.00,VWS V14.01,2013-01-29 10:17:00,
2013-01-29 04:20:00,69.8,67.7,29.94,SSE,155,5.0,9.0,93,0.00,,---,0.00,0.00,VWS V14.01,2013-01-29 10:20:00,
2013-01-29 04:21:00,69.8,67.7,29.94,SE,143,3.0,9.0,93,0.00,,---,0.00,0.00,VWS V14.01,2013-01-29 10:21:00,
2013-01-29 04:22:00,69.8,67.7,29.95,SSE,161,6.0,10.0,93,0.00,,---,0.00,0.00,VWS V14.01,2013-01-29 10:22:00,
2013-01-29 04:26:00,69.9,67.8,29.94,SE,131,2.0,10.0,93,0.00,,---,0.00,0.00,VWS V14.01,2013-01-29 10:26:00,
2013-01-29 04:27:00,69.9,67.8,29.95,SE,143,5.0,10.0,93,0.00,,---,0.00,0.00,VWS V14.01,2013-01-29 10:27:00,
2013-01-29 04:30:00,69.9,67.8,29.94,SSE,166,7.0,13.0,93,0.00,,---,0.00,0.00,VWS V14.01,2013-01-29 10:30:00,
2013-01-29 04:31:00,70.0,67.9,29.94,SE,130,3.0,9.0,93,0.00,,---,0.00,0.00,VWS V14.01,2013-01-29 10:31:00,
2013-01-29 04:33:00,70.0,67.9,29.94,ESE,123,5.0,10.0,93,0.00,,---,0.00,0.00,VWS V14.01,2013-01-29 10:33:00,
2013-01-29 04:36:00,70.0,67.9,29.94,SE,143,3.0,12.0,93,0.00,,---,0.00,0.00,VWS V14.01,2013-01-29 10:36:00,
2013-01-29 04:38:00,70.1,68.0,29.94,SSE,153,4.0,12.0,93,0.00,,---,0.00,0.00,VWS V14.01,2013-01-29 10:38:00,
2013-01-29 04:39:00,70.1,68.0,29.94,SE,135,0.0,12.0,93,0.00,,---,0.00,0.00,VWS V14.01,2013-01-29 10:39:00,
2013-01-29 04:40:00,70.1,68.0,29.94,SSW,203,6.0,12.0,93,0.00,,---,0.00,0.00,VWS V14.01,2013-01-29 10:40:00,
2013-01-29 04:41:00,70.1,68.0,29.94,SSE,163,4.0,12.0,93,0.00,,---,0.00,0.00,VWS V14.01,2013-01-29 10:41:00,
2013-01-29 04:44:00,70.1,68.0,29.94,ESE,120,1.0,12.0,93,0.00,,---,0.00,0.00,VWS V14.01,2013-01-29 10:44:00,
2013-01-29 04:46:00,70.1,68.0,29.94,SSE,159,5.0,12.0,93,0.00,,---,0.00,0.00,VWS V14.01,2013-01-29 10:46:00,
2013-01-29 04:48:00,70.1,68.0,29.94,ESE,113,5.0,12.0,93,0.00,,---,0.00,0.00,VWS V14.01,2013-01-29 10:48:00,
2013-01-29 04:49:00,70.1,68.0,29.94,SSE,157,4.0,12.0,93,0.00,,---,0.00,0.00,VWS V14.01,2013-01-29 10:49:00,
2013-01-29 04:52:00,70.1,68.0,29.94,SSE,165,6.0,12.0,93,0.00,,---,0.00,0.00,VWS V14.01,2013-01-29 10:52:00,
2013-01-29 04:54:00,70.1,68.0,29.94,South,175,4.0,12.0,93,0.00,,---,0.00,0.00,VWS V14.01,2013-01-29 10:54:00,
2013-01-29 04:55:00,70.1,68.0,29.94,South,180,7.0,12.0,93,0.00,,---,0.00,0.00,VWS V14.01,2013-01-29 10:55:00,
2013-01-29 04:59:00,70.1,67.7,29.94,South,179,1.0,12.0,92,0.00,,---,0.00,0.00,VWS V14.01,2013-01-29 10:59:00,
2013-01-29 05:00:00,70.1,67.7,29.94,SE,146,5.0,5.0,92,0.00,,---,0.00,0.00,VWS V14.01,2013-01-29 11:00:00,
2013-01-29 05:01:00,70.1,67.7,29.94,SE,136,4.0,8.0,92,0.00,,---,0.00,0.00,VWS V14.01,2013-01-29 11:01:00,
2013-01-29 05:05:00,70.2,67.8,29.94,South,169,8.0,10.0,92,0.00,,---,0.00,0.00,VWS V14.01,2013-01-29 11:05:00,
2013-01-29 05:06:00,70.2,67.8,29.94,South,169,3.0,11.0,92,0.00,,---,0.00,0.00,VWS V14.01,2013-01-29 11:06:00,
2013-01-29 05:08:00,70.2,67.8,29.94,ENE,73,4.0,11.0,92,0.00,,---,0.00,0.00,VWS V14.01,2013-01-29 11:08:00,
2013-01-29 05:13:00,70.2,67.8,29.94,SE,142,0.0,11.0,92,0.00,,---,0.00,0.00,VWS V14.01,2013-01-29 11:13:00,
2013-01-29 05:14:00,70.2,67.8,29.94,SE,128,4.0,11.0,92,0.00,,---,0.00,0.00,VWS V14.01,2013-01-29 11:14:00,
2013-01-29 05:18:00,70.2,67.8,29.94,SSE,165,4.0,11.0,92,0.00,,---,0.00,0.00,VWS V14.01,2013-01-29 11:18:00,
2013-01-29 05:19:00,70.2,67.8,29.94,SSW,200,6.0,11.0,92,0.00,,---,0.00,0.00,VWS V14.01,2013-01-29 11:19:00,
2013-01-29 05:22:00,70.2,67.8,29.94,SSE,167,2.0,11.0,92,0.00,,---,0.00,0.00,VWS V14.01,2013-01-29 11:22:00,
2013-01-29 05:23:00,70.2,67.8,29.93,SE,127,5.0,11.0,92,0.00,,---,0.00,0.00,VWS V14.01,2013-01-29 11:23:00,
2013-01-29 05:27:00,70.2,67.8,29.93,ESE,116,1.0,11.0,92,0.00,,---,0.00,0.00,VWS V14.01,2013-01-29 11:27:00,
2013-01-29 05:29:00,70.2,67.8,29.93,ESE,121,3.0,11.0,92,0.00,,---,0.00,0.00,VWS V14.01,2013-01-29 11:29:00,
2013-01-29 05:30:00,70.2,67.8,29.93,SE,130,3.0,11.0,92,0.00,,---,0.00,0.00,VWS V14.01,2013-01-29 11:30:00,
2013-01-29 05:32:00,70.2,67.8,29.93,SSE,159,3.0,9.0,92,0.00,,---,0.00,0.00,VWS V14.01,2013-01-29 11:32:00,
2013-01-29 05:33:00,70.2,67.8,29.93,SSE,153,7.0,9.0,92,0.00,,---,0.00,0.00,VWS V14.01,2013-01-29 11:33:00,
2013-01-29 05:34:00,70.2,67.8,29.93,SE,140,6.0,10.0,92,0.00,,---,0.00,0.00,VWS V14.01,2013-01-29 11:34:00,
2013-01-29 05:35:00,70.2,67.8,29.93,ENE,75,7.0,10.0,92,0.00,,---,0.00,0.00,VWS V14.01,2013-01-29 11:35:00,
2013-01-29 05:38:00,70.2,67.8,29.93,SSE,159,6.0,11.0,92,0.00,,---,0.00,0.00,VWS V14.01,2013-01-29 11:38:00,
2013-01-29 05:40:00,70.2,67.8,29.93,SE,145,3.0,11.0,92,0.00,,---,0.00,0.00,VWS V14.01,2013-01-29 11:40:00,
2013-01-29 05:45:00,70.2,67.8,29.93,ESE,102,3.0,14.0,92,0.00,,---,0.00,0.00,VWS V14.01,2013-01-29 11:45:00,
2013-01-29 05:46:00,70.2,67.8,29.93,SE,146,6.0,14.0,92,0.00,,---,0.00,0.00,VWS V14.01,2013-01-29 11:46:00,
2013-01-29 05:47:00,70.2,67.8,29.93,South,177,2.0,14.0,92,0.00,,---,0.00,0.00,VWS V14.01,2013-01-29 11:47:00,
2013-01-29 05:48:00,70.2,67.8,29.93,South,177,3.0,14.0,92,0.00,,---,0.00,0.00,VWS V14.01,2013-01-29 11:48:00,
2013-01-29 05:51:00,70.2,67.8,29.93,SE,144,5.0,14.0,92,0.00,,---,0.00,0.00,VWS V14.01,2013-01-29 11:51:00,
2013-01-29 05:52:00,70.2,67.8,29.93,SSE,165,4.0,14.0,92,0.00,,---,0.00,0.00,VWS V14.01,2013-01-29 11:52:00,
2013-01-29 05:55:00,70.2,67.8,29.93,South,189,4.0,14.0,92,0.00,,---,0.00,0.00,VWS V14.01,2013-01-29 11:55:00,
2013-01-29 05:56:00,70.2,67.8,29.93,South,180,3.0,14.0,92,0.00,,---,0.00,0.00,VWS V14.01,2013-01-29 11:56:00,
2013-01-29 06:00:00,70.2,67.8,29.93,South,175,1.0,3.0,92,0.00,,---,0.00,0.00,VWS V14.01,2013-01-29 12:00:00,
2013-01-29 06:01:00,70.2,67.8,29.93,SSE,165,4.0,4.0,92,0.00,,---,0.00,0.00,VWS V14.01,2013-01-29 12:01:00,
2013-01-29 06:04:00,70.2,67.8,29.93,SSW,194,6.0,9.0,92,0.00,,---,0.00,0.00,VWS V14.01,2013-01-29 12:04:00,
2013-01-29 06:06:00,70.2,67.8,29.93,South,173,1.0,9.0,92,0.00,,---,0.00,0.00,VWS V14.01,2013-01-29 12:06:00,
2013-01-29 06:07:00,70.2,67.8,29.93,SE,130,7.0,9.0,92,0.00,,---,0.00,0.00,VWS V14.01,2013-01-29 12:07:00,
2013-01-29 06:09:00,70.2,67.8,29.93,SSE,147,4.0,9.0,92,0.00,,---,0.00,0.00,VWS V14.01,2013-01-29 12:09:00,
2013-01-29 06:10:00,70.2,67.8,29.93,SSE,148,2.0,9.0,92,0.00,,---,0.00,0.00,VWS V14.01,2013-01-29 12:10:00,
2013-01-29 06:14:00,70.2,67.4,29.93,ESE,103,1.0,9.0,91,0.00,,---,0.00,0.00,VWS V14.01,2013-01-29 12:14:00,
2013-01-29 06:15:00,70.2,67.4,29.93,South,175,4.0,9.0,91,0.00,,---,0.00,0.00,VWS V14.01,2013-01-29 12:15:00,
2013-01-29 06:18:00,70.2,67.4,29.93,SSE,150,3.0,9.0,91,0.00,,---,0.00,0.00,VWS V14.01,2013-01-29 12:18:00,
2013-01-29 06:19:00,70.2,67.4,29.93,ESE,121,4.0,9.0,91,0.00,,---,0.00,0.00,VWS V14.01,2013-01-29 12:19:00,
2013-01-29 06:23:00,70.2,67.4,29.93,SSE,157,4.0,9.0,91,0.00,,---,0.00,0.00,VWS V14.01,2013-01-29 12:23:00,
2013-01-29 06:24:00,70.2,67.4,29.93,SSE,158,2.0,9.0,91,0.00,,---,0.00,0.00,VWS V14.01,2013-01-29 12:24:00,
2013-01-29 06:26:00,70.2,67.4,29.93,SSE,161,3.0,9.0,91,0.00,,---,0.00,0.00,VWS V14.01,2013-01-29 12:26:00,
2013-01-29 06:27:00,70.2,67.4,29.93,SSE,152,7.0,9.0,91,0.00,,---,0.00,0.00,VWS V14.01,2013-01-29 12:27:00,
2013-01-29 06:30:00,70.2,67.4,29.93,SE,142,5.0,10.0,91,0.00,,---,0.00,0.00,VWS V14.01,2013-01-29 12:30:00,
2013-01-29 06:31:00,70.2,67.4,29.93,SE,138,0.0,8.0,91,0.00,,---,0.00,0.00,VWS V14.01,2013-01-29 12:31:00,
2013-01-29 06:32:00,70.2,67.4,29.93,ESE,110,3.0,8.0,91,0.00,,---,0.00,0.00,VWS V14.01,2013-01-29 12:32:00,
2013-01-29 06:34:00,70.2,67.4,29.93,SSE,164,10.0,11.0,91,0.00,,---,0.00,0.00,VWS V14.01,2013-01-29 12:34:00,
2013-01-29 06:36:00,70.2,67.4,29.93,ESE,119,2.0,11.0,91,0.00,,---,0.00,0.00,VWS V14.01,2013-01-29 12:36:00,
2013-01-29 06:38:00,70.2,67.4,29.93,SSE,159,2.0,11.0,91,0.00,,---,0.00,0.00,VWS V14.01,2013-01-29 12:38:00,
2013-01-29 06:41:00,70.2,67.4,29.93,SSE,163,3.0,11.0,91,0.00,,---,0.00,0.00,VWS V14.01,2013-01-29 12:41:00,
2013-01-29 06:42:00,70.2,67.4,29.94,SSW,198,2.0,11.0,91,0.00,,---,0.00,0.00,VWS V14.01,2013-01-29 12:42:00,
2013-01-29 06:43:00,70.2,67.4,29.94,South,188,3.0,11.0,91,0.00,,---,0.00,0.00,VWS V14.01,2013-01-29 12:43:00,
2013-01-29 06:45:00,70.2,67.4,29.94,SE,142,4.0,11.0,91,0.00,,---,0.00,0.00,VWS V14.01,2013-01-29 12:45:00,
2013-01-29 06:48:00,70.2,67.4,29.95,SE,141,4.0,11.0,91,0.00,,---,0.00,0.00,VWS V14.01,2013-01-29 12:48:00,
2013-01-29 06:50:00,70.2,67.4,29.95,South,180,1.0,11.0,91,0.00,,---,0.00,0.00,VWS V14.01,2013-01-29 12:50:00,
2013-01-29 06:53:00,70.2,67.4,29.95,ESE,104,3.0,11.0,91,0.00,,---,0.00,0.00,VWS V14.01,2013-01-29 12:53:00,
2013-01-29 06:56:00,70.2,67.4,29.95,East,96,0.0,11.0,91,0.00,,---,0.00,0.00,VWS V14.01,2013-01-29 12:56:00,
2013-01-29 06:58:00,70.2,67.4,29.95,SE,144,5.0,11.0,91,0.00,,---,0.00,0.00,VWS V14.01,2013-01-29 12:58:00,
2013-01-29 06:59:00,70.2,67.4,29.95,ESE,119,3.0,11.0,91,0.00,,---,0.00,0.00,VWS V14.01,2013-01-29 12:59:00,
2013-01-29 07:00:00,70.2,67.4,29.95,SE,130,5.0,11.0,91,0.00,,---,0.00,0.00,VWS V14.01,2013-01-29 13:00:00,
2013-01-29 07:01:00,70.2,67.4,29.94,SE,138,6.0,10.0,91,0.00,,---,0.00,0.00,VWS V14.01,2013-01-29 13:01:00,
2013-01-29 07:03:00,70.2,67.4,29.94,SE,132,7.0,10.0,91,0.00,,---,0.00,0.00,VWS V14.01,2013-01-29 13:03:00,
2013-01-29 07:04:00,70.2,67.4,29.94,SSE,148,4.0,10.0,91,0.00,,---,0.00,0.00,VWS V14.01,2013-01-29 13:04:00,
2013-01-29 07:07:00,70.2,67.4,29.94,SSW,209,2.0,10.0,91,0.00,,---,0.00,0.00,VWS V14.01,2013-01-29 13:07:00,
2013-01-29 07:08:00,70.2,67.4,29.94,South,184,2.0,10.0,91,0.00,,---,0.00,0.00,VWS V14.01,2013-01-29 13:08:00,
2013-01-29 07:10:00,70.2,67.4,29.94,ESE,115,8.0,10.0,91,0.00,,---,0.00,0.00,VWS V14.01,2013-01-29 13:10:00,
2013-01-29 07:11:00,70.2,67.4,29.94,South,186,4.0,10.0,91,0.00,,---,0.00,0.00,VWS V14.01,2013-01-29 13:11:00,
2013-01-29 07:13:00,70.2,67.4,29.94,South,191,5.0,12.0,91,0.00,,---,0.00,0.00,VWS V14.01,2013-01-29 13:13:00,
2013-01-29 07:14:00,70.2,67.4,29.93,SSE,167,4.0,12.0,91,0.00,,---,0.00,0.00,VWS V14.01,2013-01-29 13:14:00,
2013-01-29 07:15:00,70.2,67.4,29.93,South,173,3.0,12.0,91,0.00,,---,0.00,0.00,VWS V14.01,2013-01-29 13:15:00,
2013-01-29 07:17:00,70.1,67.4,29.93,SE,125,1.0,12.0,91,0.00,,---,0.00,0.00,VWS V14.01,2013-01-29 13:17:00,
2013-01-29 07:19:00,70.2,67.4,29.93,East,97,6.0,12.0,91,0.00,,---,0.00,0.00,VWS V14.01,2013-01-29 13:19:00,
2013-01-29 07:20:00,70.2,67.4,29.93,SSE,153,3.0,12.0,91,0.00,,---,0.00,0.00,VWS V14.01,2013-01-29 13:20:00,
2013-01-29 07:23:00,70.2,67.4,29.94,ESE,102,1.0,12.0,91,0.00,,---,0.00,5.00,VWS V14.01,2013-01-29 13:23:00,
2013-01-29 07:24:00,70.1,67.4,29.94,SE,141,6.0,12.0,91,0.00,,---,0.00,5.00,VWS V14.01,2013-01-29 13:24:00,
2013-01-29 07:25:00,70.2,67.4,29.93,South,169,4.0,12.0,91,0.00,,---,0.00,5.00,VWS V14.01,2013-01-29 13:25:00,
2013-01-29 07:29:00,70.2,67.4,29.94,SSE,163,8.0,12.0,91,0.00,,---,0.00,5.00,VWS V14.01,2013-01-29 13:29:00,
2013-01-29 07:30:00,70.2,67.4,29.94,South,179,5.0,7.0,91,0.00,,---,0.00,7.00,VWS V14.01,2013-01-29 13:30:00,
2013-01-29 07:31:00,70.2,67.4,29.94,SE,136,4.0,7.0,91,0.00,,---,0.00,7.00,VWS V14.01,2013-01-29 13:31:00,
2013-01-29 07:34:00,70.2,67.4,29.94,SSW,198,7.0,10.0,91,0.00,,---,0.00,5.00,VWS V14.01,2013-01-29 13:34:00,
2013-01-29 07:35:00,70.2,67.4,29.94,SSE,153,7.0,10.0,91,0.00,,---,0.00,5.00,VWS V14.01,2013-01-29 13:35:00,
2013-01-29 07:36:00,70.2,67.4,29.94,SE,145,5.0,10.0,91,0.00,,---,0.00,7.00,VWS V14.01,2013-01-29 13:36:00,
2013-01-29 07:37:00,70.2,67.4,29.94,SE,145,9.0,10.0,91,0.00,,---,0.00,9.00,VWS V14.01,2013-01-29 13:37:00,
2013-01-29 07:40:00,70.3,67.6,29.94,South,170,10.0,11.0,91,0.00,,---,0.00,9.00,VWS V14.01,2013-01-29 13:40:00,
2013-01-29 07:41:00,70.3,67.6,29.94,East,95,9.0,11.0,91,0.00,,---,0.00,9.00,VWS V14.01,2013-01-29 13:41:00,
2013-01-29 07:43:00,70.3,67.6,29.94,SE,144,2.0,11.0,91,0.00,,---,0.00,9.00,VWS V14.01,2013-01-29 13:43:00,
2013-01-29 07:46:00,70.3,67.6,29.94,SE,141,3.0,11.0,91,0.00,,---,0.00,16.00,VWS V14.01,2013-01-29 13:46:00,
2013-01-29 07:47:00,70.3,67.6,29.94,SSE,147,4.0,11.0,91,0.00,,---,0.00,16.00,VWS V14.01,2013-01-29 13:47:00,
2013-01-29 07:48:00,70.3,67.6,29.94,SE,130,6.0,11.0,91,0.00,,---,0.00,16.00,VWS V14.01,2013-01-29 13:48:00,
2013-01-29 07:49:00,70.3,67.6,29.94,East,84,1.0,11.0,91,0.00,,---,0.00,16.00,VWS V14.01,2013-01-29 13:49:00,
2013-01-29 07:52:00,70.3,67.6,29.94,SSE,161,0.0,11.0,91,0.00,,---,0.00,30.00,VWS V14.01,2013-01-29 13:52:00,
2013-01-29 07:53:00,70.3,67.6,29.94,SSE,161,1.0,11.0,91,0.00,,---,0.00,28.00,VWS V14.01,2013-01-29 13:53:00,
2013-01-29 07:55:00,70.3,67.6,29.94,ESE,105,2.0,11.0,91,0.00,,---,0.00,32.00,VWS V14.01,2013-01-29 13:55:00,
2013-01-29 07:58:00,70.3,67.6,29.94,East,86,1.0,11.0,91,0.00,,---,0.00,33.00,VWS V14.01,2013-01-29 13:58:00,
2013-01-29 08:00:00,70.3,67.6,29.94,SSE,161,2.0,11.0,91,0.00,,---,0.00,26.00,VWS V14.01,2013-01-29 14:00:00,
2013-01-29 08:01:00,70.3,67.6,29.94,SE,146,4.0,5.0,91,0.00,,---,0.00,28.00,VWS V14.01,2013-01-29 14:01:00,
2013-01-29 08:03:00,70.4,67.7,29.94,SE,132,0.0,8.0,91,0.00,,---,0.00,35.00,VWS V14.01,2013-01-29 14:03:00,
2013-01-29 08:06:00,70.4,67.7,29.93,South,175,8.0,11.0,91,0.00,,---,0.00,42.00,VWS V14.01,2013-01-29 14:06:00,
2013-01-29 08:07:00,70.4,67.7,29.93,SE,132,1.0,11.0,91,0.00,,---,0.00,37.00,VWS V14.01,2013-01-29 14:07:00,
2013-01-29 08:10:00,70.4,67.7,29.93,SSE,159,9.0,11.0,91,0.00,,---,0.00,26.00,VWS V14.01,2013-01-29 14:10:00,
2013-01-29 08:11:00,70.4,67.7,29.93,South,186,3.0,11.0,91,0.00,,---,0.00,26.00,VWS V14.01,2013-01-29 14:11:00,
2013-01-29 08:13:00,70.4,67.7,29.93,SSE,147,1.0,11.0,91,0.00,,---,0.00,44.00,VWS V14.01,2013-01-29 14:13:00,
2013-01-29 08:16:00,70.5,67.8,29.93,SE,143,5.0,11.0,91,0.00,,---,0.00,33.00,VWS V14.01,2013-01-29 14:16:00,
2013-01-29 08:17:00,70.4,67.7,29.93,SSE,155,3.0,11.0,91,0.00,,---,0.00,28.00,VWS V14.01,2013-01-29 14:17:00,
2013-01-29 08:18:00,70.4,67.7,29.93,SE,134,2.0,11.0,91,0.00,,---,0.00,30.00,VWS V14.01,2013-01-29 14:18:00,
2013-01-29 08:22:00,70.4,67.7,29.92,South,169,1.0,11.0,91,0.00,,---,0.00,42.00,VWS V14.01,2013-01-29 14:22:00,
2013-01-29 08:24:00,70.5,67.8,29.93,SSE,163,3.0,11.0,91,0.00,,---,0.00,39.00,VWS V14.01,2013-01-29 14:24:00,
2013-01-29 08:25:00,70.5,67.8,29.93,SE,130,3.0,11.0,91,0.00,,---,0.00,40.00,VWS V14.01,2013-01-29 14:25:00,
2013-01-29 08:28:00,70.5,67.8,29.93,SSE,167,1.0,11.0,91,0.00,,---,0.00,44.00,VWS V14.01,2013-01-29 14:28:00,
2013-01-29 08:29:00,70.5,67.8,29.93,South,187,3.0,11.0,91,0.00,,---,0.00,37.00,VWS V14.01,2013-01-29 14:29:00,
2013-01-29 08:30:00,70.5,67.8,29.93,SE,133,6.0,8.0,91,0.00,,---,0.00,39.00,VWS V14.01,2013-01-29 14:30:00,
2013-01-29 08:32:00,70.5,67.8,29.93,SSE,154,5.0,9.0,91,0.00,,---,0.00,35.00,VWS V14.01,2013-01-29 14:32:00,
2013-01-29 08:34:00,70.5,67.8,29.93,SSE,150,2.0,9.0,91,0.00,,---,0.00,42.00,VWS V14.01,2013-01-29 14:34:00,
2013-01-29 08:36:00,70.6,67.8,29.93,SSE,168,3.0,9.0,91,0.00,,---,0.00,40.00,VWS V14.01,2013-01-29 14:36:00,
2013-01-29 08:39:00,70.6,67.8,29.93,SE,132,3.0,12.0,91,0.00,,---,0.00,28.00,VWS V14.01,2013-01-29 14:39:00,
2013-01-29 08:41:00,70.6,67.8,29.93,SE,146,0.0,12.0,91,0.00,,---,0.00,39.00,VWS V14.01,2013-01-29 14:41:00,
2013-01-29 08:42:00,70.6,67.8,29.93,South,180,5.0,12.0,91,0.00,,---,0.00,39.00,VWS V14.01,2013-01-29 14:42:00,
2013-01-29 08:47:00,70.6,67.8,29.93,SE,125,7.0,12.0,91,0.00,,---,0.00,39.00,VWS V14.01,2013-01-29 14:47:00,
2013-01-29 08:51:00,70.7,67.9,29.93,South,191,5.0,12.0,91,0.00,,---,0.00,49.00,VWS V14.01,2013-01-29 14:51:00,
2013-01-29 08:52:00,70.7,67.9,29.93,SE,138,1.0,12.0,91,0.00,,---,0.00,69.00,VWS V14.01,2013-01-29 14:52:00,
2013-01-29 08:54:00,70.7,67.9,29.93,SSE,157,2.0,12.0,91,0.00,,---,0.00,70.00,VWS V14.01,2013-01-29 14:54:00,
2013-01-29 08:55:00,70.7,67.9,29.93,East,98,1.0,12.0,91,0.00,,---,0.00,72.00,VWS V14.01,2013-01-29 14:55:00,
2013-01-29 08:57:00,70.8,68.1,29.93,SE,135,5.0,12.0,91,0.00,,---,0.00,70.00,VWS V14.01,2013-01-29 14:57:00,
2013-01-29 08:58:00,70.8,67.7,29.93,SSE,163,5.0,12.0,90,0.00,,---,0.00,70.00,VWS V14.01,2013-01-29 14:58:00,
2013-01-29 09:00:00,70.8,67.7,29.93,SE,132,3.0,6.0,90,0.00,,---,0.00,84.00,VWS V14.01,2013-01-29 15:00:00,
2013-01-29 09:03:00,70.9,67.8,29.93,SE,132,6.0,8.0,90,0.00,,---,0.00,47.00,VWS V14.01,2013-01-29 15:03:00,
2013-01-29 09:06:00,70.9,67.8,29.92,SSE,150,1.0,9.0,90,0.00,,---,0.00,54.00,VWS V14.01,2013-01-29 15:06:00,
2013-01-29 09:08:00,71.0,67.9,29.92,SE,131,4.0,9.0,90,0.00,,---,0.00,51.00,VWS V14.01,2013-01-29 15:08:00,
2013-01-29 09:09:00,71.0,67.9,29.92,SSW,195,3.0,9.0,90,0.00,,---,0.00,56.00,VWS V14.01,2013-01-29 15:09:00,
2013-01-29 09:11:00,71.0,67.9,29.92,SE,146,4.0,9.0,90,0.00,,---,0.00,49.00,VWS V14.01,2013-01-29 15:11:00,
2013-01-29 09:12:00,71.0,67.9,29.92,South,173,3.0,9.0,90,0.00,,---,0.00,49.00,VWS V14.01,2013-01-29 15:12:00,
2013-01-29 09:14:00,71.1,68.0,29.92,ESE,114,4.0,9.0,90,0.00,,---,0.00,32.00,VWS V14.01,2013-01-29 15:14:00,
2013-01-29 09:15:00,71.1,68.0,29.92,SE,145,5.0,9.0,90,0.00,,---,0.00,40.00,VWS V14.01,2013-01-29 15:15:00,
2013-01-29 09:16:00,71.1,68.0,29.92,SSE,158,4.0,9.0,90,0.00,,---,0.00,40.00,VWS V14.01,2013-01-29 15:16:00,
2013-01-29 09:17:00,71.1,68.0,29.92,SSE,160,12.0,12.0,90,0.00,,---,0.00,58.00,VWS V14.01,2013-01-29 15:17:00,
2013-01-29 09:21:00,71.2,68.1,29.92,ESE,114,2.0,12.0,90,0.00,,---,0.00,56.00,VWS V14.01,2013-01-29 15:21:00,
2013-01-29 09:22:00,71.2,68.1,29.92,SSE,157,6.0,12.0,90,0.00,,---,0.00,42.00,VWS V14.01,2013-01-29 15:22:00,
2013-01-29 09:23:00,71.2,68.1,29.92,South,180,5.0,12.0,90,0.00,,---,0.00,56.00,VWS V14.01,2013-01-29 15:23:00,
2013-01-29 09:28:00,71.3,68.2,29.92,ESE,119,3.0,12.0,90,0.00,,---,0.00,77.00,VWS V14.01,2013-01-29 15:28:00,
2013-01-29 09:29:00,71.3,68.2,29.92,SSE,164,2.0,12.0,90,0.00,,---,0.00,74.00,VWS V14.01,2013-01-29 15:29:00,
2013-01-29 09:30:00,71.3,68.2,29.92,SSE,155,6.0,12.0,90,0.00,,---,0.00,79.00,VWS V14.01,2013-01-29 15:30:00,
2013-01-29 09:32:00,71.3,68.2,29.91,ESE,123,4.0,6.0,90,0.00,,---,0.00,72.00,VWS V14.01,2013-01-29 15:32:00,
2013-01-29 09:33:00,71.4,68.3,29.92,SE,135,4.0,8.0,90,0.00,,---,0.00,86.00,VWS V14.01,2013-01-29 15:33:00,
2013-01-29 09:34:00,71.4,68.0,29.91,SSE,157,7.0,8.0,89,0.00,,---,0.00,74.00,VWS V14.01,2013-01-29 15:34:00,
2013-01-29 09:35:00,71.4,68.0,29.92,SE,125,4.0,8.0,89,0.00,,---,0.00,76.00,VWS V14.01,2013-01-29 15:35:00,
2013-01-29 09:37:00,71.5,68.1,29.91,SSE,148,6.0,9.0,89,0.00,,---,0.00,84.00,VWS V14.01,2013-01-29 15:37:00,
2013-01-29 09:38:00,71.5,68.1,29.91,SSE,161,3.0,9.0,89,0.00,,---,0.00,97.00,VWS V14.01,2013-01-29 15:38:00,
2013-01-29 09:39:00,71.6,68.2,29.91,SSE,157,4.0,9.0,89,0.00,,---,0.00,135.00,VWS V14.01,2013-01-29 15:39:00,
2013-01-29 09:40:00,71.6,68.2,29.91,SE,136,10.0,10.0,89,0.00,,---,0.00,162.00,VWS V14.01,2013-01-29 15:40:00,
2013-01-29 09:42:00,71.8,68.4,29.91,SE,144,7.0,13.0,89,0.00,,---,0.00,104.00,VWS V14.01,2013-01-29 15:42:00,
2013-01-29 09:43:00,71.9,68.5,29.91,ESE,113,3.0,13.0,89,0.00,,---,0.00,104.00,VWS V14.01,2013-01-29 15:43:00,
2013-01-29 09:47:00,72.3,68.9,29.90,SE,125,3.0,16.0,89,0.00,,---,0.00,178.00,VWS V14.01,2013-01-29 15:47:00,
2013-01-29 09:48:00,72.3,68.6,29.90,SE,146,2.0,16.0,88,0.00,,---,0.00,167.00,VWS V14.01,2013-01-29 15:48:00,
2013-01-29 09:49:00,72.5,69.1,29.90,ESE,117,3.0,16.0,89,0.00,,---,0.00,197.00,VWS V14.01,2013-01-29 15:49:00,
2013-01-29 09:54:00,72.9,68.8,29.91,SSE,153,6.0,16.0,87,0.00,,---,0.00,116.00,VWS V14.01,2013-01-29 15:54:00,
2013-01-29 09:57:00,72.7,68.6,29.90,SSE,162,6.0,16.0,87,0.00,,---,0.00,137.00,VWS V14.01,2013-01-29 15:57:00,
2013-01-29 09:58:00,72.7,68.6,29.90,SE,131,7.0,16.0,87,0.00,,---,0.00,141.00,VWS V14.01,2013-01-29 15:58:00,
2013-01-29 09:59:00,72.8,68.7,29.90,SE,140,9.0,16.0,87,0.00,,---,0.00,118.00,VWS V14.01,2013-01-29 15:59:00,
2013-01-29 10:00:00,72.8,68.7,29.90,SSE,167,10.0,17.0,87,0.00,,---,0.00,88.00,VWS V14.01,2013-01-29 16:00:00,
2013-01-29 10:03:00,72.8,68.7,29.90,SSE,150,3.0,17.0,87,0.00,,---,0.00,70.00,VWS V14.01,2013-01-29 16:03:00,
2013-01-29 10:04:00,72.8,68.7,29.90,South,189,4.0,17.0,87,0.00,,---,0.00,76.00,VWS V14.01,2013-01-29 16:04:00,
2013-01-29 10:07:00,72.7,68.6,29.90,SSW,202,7.0,17.0,87,0.00,,---,0.00,51.00,VWS V14.01,2013-01-29 16:07:00,
2013-01-29 10:09:00,72.7,68.6,29.90,SE,146,3.0,17.0,87,0.00,,---,0.00,60.00,VWS V14.01,2013-01-29 16:09:00,
2013-01-29 10:10:00,72.6,68.5,29.91,ESE,123,1.0,17.0,87,0.00,,---,0.00,51.00,VWS V14.01,2013-01-29 16:10:00,
2013-01-29 10:12:00,72.6,68.5,29.91,South,187,2.0,17.0,87,0.00,,---,0.00,44.00,VWS V14.01,2013-01-29 16:12:00,
2013-01-29 10:16:00,72.6,68.5,29.91,SSE,151,6.0,17.0,87,0.00,,---,0.00,42.00,VWS V14.01,2013-01-29 16:16:00,
2013-01-29 10:17:00,72.6,68.5,29.91,SSE,159,3.0,17.0,87,0.00,,---,0.00,53.00,VWS V14.01,2013-01-29 16:17:00,
2013-01-29 10:18:00,72.6,68.5,29.91,SE,134,6.0,17.0,87,0.00,,---,0.00,44.00,VWS V14.01,2013-01-29 16:18:00,
2013-01-29 10:22:00,72.6,68.5,29.90,South,180,2.0,17.0,87,0.00,,---,0.00,56.00,VWS V14.01,2013-01-29 16:22:00,
2013-01-29 10:23:00,72.6,68.8,29.90,SE,143,5.0,17.0,88,0.00,,---,0.00,56.00,VWS V14.01,2013-01-29 16:23:00,
2013-01-29 10:26:00,72.6,68.8,29.90,SE,139,5.0,17.0,88,0.00,,---,0.00,37.00,VWS V14.01,2013-01-29 16:26:00,
2013-01-29 10:27:00,72.6,68.5,29.90,ESE,117,12.0,17.0,87,0.00,,---,0.00,42.00,VWS V14.01,2013-01-29 16:27:00,
2013-01-29 10:28:00,72.6,68.8,29.90,SSE,163,6.0,17.0,88,0.00,,---,0.00,46.00,VWS V14.01,2013-01-29 16:28:00,
2013-01-29 10:30:00,72.6,68.8,29.90,SE,126,9.0,17.0,88,0.00,,---,0.00,33.00,VWS V14.01,2013-01-29 16:30:00,
2013-01-29 10:32:00,72.6,68.5,29.90,SE,146,3.0,11.0,87,0.00,,---,0.00,33.00,VWS V14.01,2013-01-29 16:32:00,
2013-01-29 10:33:00,72.6,68.5,29.90,SE,145,3.0,11.0,87,0.00,,---,0.00,33.00,VWS V14.01,2013-01-29 16:33:00,
2013-01-29 10:34:00,72.6,68.8,29.90,South,186,3.0,11.0,88,0.00,,---,0.00,32.00,VWS V14.01,2013-01-29 16:34:00,
2013-01-29 10:35:00,72.6,68.8,29.90,SSE,161,6.0,11.0,88,0.00,,---,0.00,39.00,VWS V14.01,2013-01-29 16:35:00,
2013-01-29 10:38:00,72.6,68.8,29.89,ESE,107,2.0,11.0,88,0.00,,---,0.00,32.00,VWS V14.01,2013-01-29 16:38:00,
2013-01-29 10:40:00,72.6,68.8,29.89,SSE,147,7.0,11.0,88,0.00,,---,0.00,35.00,VWS V14.01,2013-01-29 16:40:00,
2013-01-29 10:41:00,72.6,68.8,29.89,SSE,160,6.0,11.0,88,0.00,,---,0.00,37.00,VWS V14.01,2013-01-29 16:41:00,
2013-01-29 10:42:00,72.6,68.8,29.89,SSE,154,8.0,11.0,88,0.00,,---,0.00,30.00,VWS V14.01,2013-01-29 16:42:00,
2013-01-29 10:46:00,72.6,68.8,29.89,SSE,167,7.0,11.0,88,0.00,,---,0.00,51.00,VWS V14.01,2013-01-29 16:46:00,
2013-01-29 10:47:00,72.6,68.5,29.89,SSE,153,12.0,12.0,87,0.00,,---,0.00,74.00,VWS V14.01,2013-01-29 16:47:00,
2013-01-29 10:48:00,72.6,68.5,29.89,SE,140,8.0,12.0,87,0.00,,---,0.00,74.00,VWS V14.01,2013-01-29 16:48:00,
2013-01-29 10:50:00,72.7,68.6,29.89,South,184,3.0,12.0,87,0.00,,---,0.00,76.00,VWS V14.01,2013-01-29 16:50:00,
2013-01-29 10:51:00,72.7,68.6,29.89,SSW,207,3.0,12.0,87,0.00,,---,0.00,69.00,VWS V14.01,2013-01-29 16:51:00,
2013-01-29 10:52:00,72.7,68.6,29.89,SE,140,6.0,12.0,87,0.00,,---,0.00,69.00,VWS V14.01,2013-01-29 16:52:00,
2013-01-29 10:55:00,72.8,68.7,29.89,SE,144,2.0,12.0,87,0.00,,---,0.00,69.00,VWS V14.01,2013-01-29 16:55:00,
2013-01-29 10:56:00,72.8,68.7,29.89,SE,134,6.0,17.0,87,0.00,,---,0.00,67.00,VWS V14.01,2013-01-29 16:56:00,
2013-01-29 11:00:00,72.9,68.8,29.89,SE,132,3.0,17.0,87,0.00,,---,0.00,81.00,VWS V14.01,2013-01-29 17:00:00,
2013-01-29 11:01:00,73.0,68.9,29.89,SSE,157,4.0,9.0,87,0.00,,---,0.00,58.00,VWS V14.01,2013-01-29 17:01:00,
2013-01-29 11:02:00,73.0,68.9,29.89,SSE,157,4.0,9.0,87,0.00,,---,0.00,58.00,VWS V14.01,2013-01-29 17:02:00,
2013-01-29 11:05:00,73.1,69.0,29.89,ESE,109,1.0,11.0,87,0.00,,---,0.00,84.00,VWS V14.01,2013-01-29 17:05:00,
2013-01-29 11:06:00,73.1,69.0,29.88,SSE,150,4.0,11.0,87,0.00,,---,0.00,84.00,VWS V14.01,2013-01-29 17:06:00,
2013-01-29 11:07:00,73.1,69.0,29.88,WSW,238,6.0,11.0,87,0.00,,---,0.00,84.00,VWS V14.01,2013-01-29 17:07:00,
2013-01-29 11:08:00,73.1,69.0,29.89,South,171,7.0,11.0,87,0.00,,---,0.00,141.00,VWS V14.01,2013-01-29 17:08:00,
2013-01-29 11:12:00,73.2,69.1,29.88,ESE,111,2.0,11.0,87,0.00,,---,0.00,116.00,VWS V14.01,2013-01-29 17:12:00,
2013-01-29 11:13:00,73.3,68.9,29.88,SSE,166,3.0,19.0,86,0.00,,---,0.00,121.00,VWS V14.01,2013-01-29 17:13:00,
2013-01-29 11:17:00,73.5,69.1,29.88,South,178,2.0,19.0,86,0.00,,---,0.00,137.00,VWS V14.01,2013-01-29 17:17:00,
2013-01-29 11:18:00,73.7,69.3,29.87,ENE,78,4.0,19.0,86,0.00,,---,0.00,165.00,VWS V14.01,2013-01-29 17:18:00,
2013-01-29 11:22:00,73.8,69.0,29.87,SSE,159,8.0,19.0,85,0.00,,---,0.00,90.00,VWS V14.01,2013-01-29 17:22:00,
2013-01-29 11:23:00,73.8,69.0,29.87,SE,144,11.0,19.0,85,0.00,,---,0.00,90.00,VWS V14.01,2013-01-29 17:23:00,
2013-01-29 11:26:00,73.8,69.0,29.87,SE,141,8.0,19.0,85,0.00,,---,0.00,86.00,VWS V14.01,2013-01-29 17:26:00,
2013-01-29 11:29:00,73.9,69.1,29.87,SE,135,9.0,19.0,85,0.00,,---,0.00,90.00,VWS V14.01,2013-01-29 17:29:00,
2013-01-29 11:30:00,73.8,69.0,29.87,South,178,6.0,10.0,85,0.00,,---,0.00,72.00,VWS V14.01,2013-01-29 17:30:00,
2013-01-29 11:34:00,73.8,69.0,29.86,SSE,149,3.0,14.0,85,0.00,,---,0.00,102.00,VWS V14.01,2013-01-29 17:34:00,
2013-01-29 11:35:00,73.8,69.0,29.86,South,186,5.0,14.0,85,0.00,,---,0.00,102.00,VWS V14.01,2013-01-29 17:35:00,
2013-01-29 11:36:00,73.7,68.9,29.86,SSE,163,4.0,14.0,85,0.00,,---,0.00,102.00,VWS V14.01,2013-01-29 17:36:00,
2013-01-29 11:37:00,73.7,69.3,29.86,SE,136,8.0,14.0,86,0.00,,---,0.00,113.00,VWS V14.01,2013-01-29 17:37:00,
2013-01-29 11:40:00,73.5,69.1,29.85,South,178,4.0,14.0,86,0.00,,---,0.00,113.00,VWS V14.01,2013-01-29 17:40:00,
2013-01-29 11:41:00,73.5,69.1,29.85,SSE,154,6.0,14.0,86,0.00,,---,0.00,125.00,VWS V14.01,2013-01-29 17:41:00,
2013-01-29 11:43:00,73.4,69.3,29.85,SE,142,6.0,14.0,87,0.00,,---,0.00,104.00,VWS V14.01,2013-01-29 17:43:00,
2013-01-29 11:45:00,73.3,69.2,29.86,SW,214,7.0,14.0,87,0.00,,---,0.00,97.00,VWS V14.01,2013-01-29 17:45:00,
2013-01-29 11:46:00,73.1,69.0,29.85,SE,128,7.0,14.0,87,0.00,,---,0.00,88.00,VWS V14.01,2013-01-29 17:46:00,
2013-01-29 11:47:00,73.1,69.0,29.85,SE,125,4.0,14.0,87,0.00,,---,0.00,72.00,VWS V14.01,2013-01-29 17:47:00,
2013-01-29 11:48:00,72.9,69.1,29.85,ESE,117,7.0,14.0,88,0.00,,---,0.00,148.00,VWS V14.01,2013-01-29 17:48:00,
2013-01-29 11:51:00,72.7,69.3,29.85,SSE,159,4.0,14.0,89,0.00,,---,0.00,178.00,VWS V14.01,2013-01-29 17:51:00,
2013-01-29 11:52:00,72.7,69.6,29.85,East,91,3.0,14.0,90,0.00,,---,0.00,178.00,VWS V14.01,2013-01-29 17:52:00,
2013-01-29 11:55:00,72.6,69.5,29.85,SSE,155,5.0,14.0,90,0.00,,---,0.00,171.00,VWS V14.01,2013-01-29 17:55:00,
2013-01-29 11:57:00,72.6,69.5,29.85,SSE,153,5.0,14.0,90,0.00,,---,0.00,207.00,VWS V14.01,2013-01-29 17:57:00,
2013-01-29 11:59:00,72.6,69.5,29.85,SE,140,7.0,14.0,90,0.00,,---,0.00,185.00,VWS V14.01,2013-01-29 17:59:00,
2013-01-29 12:00:00,72.7,69.6,29.85,SE,140,13.0,13.0,90,0.00,,---,0.00,239.00,VWS V14.01,2013-01-29 18:00:00,
2013-01-29 12:02:00,72.8,69.7,29.85,South,180,5.0,13.0,90,0.00,,---,0.00,121.00,VWS V14.01,2013-01-29 18:02:00,
2013-01-29 12:03:00,72.9,69.5,29.84,SE,134,2.0,13.0,89,0.00,,---,0.00,121.00,VWS V14.01,2013-01-29 18:03:00,
2013-01-29 12:05:00,73.0,69.6,29.84,SE,140,4.0,13.0,89,0.00,,---,0.00,121.00,VWS V14.01,2013-01-29 18:05:00,
2013-01-29 12:08:00,73.1,69.7,29.84,SE,133,8.0,14.0,89,0.00,,---,0.00,176.00,VWS V14.01,2013-01-29 18:08:00,
2013-01-29 12:10:00,73.2,69.8,29.83,ESE,118,5.0,15.0,89,0.00,,---,0.00,137.00,VWS V14.01,2013-01-29 18:10:00,
2013-01-29 12:14:00,73.1,69.7,29.83,South,178,6.0,15.0,89,0.00,,---,0.00,120.00,VWS V14.01,2013-01-29 18:14:00,
2013-01-29 12:15:00,73.1,69.7,29.83,SSE,148,6.0,15.0,89,0.00,,---,0.00,120.00,VWS V14.01,2013-01-29 18:15:00,
2013-01-29 12:19:00,73.2,69.4,29.83,ESE,109,3.0,15.0,88,0.00,,---,0.00,76.00,VWS V14.01,2013-01-29 18:19:00,
2013-01-29 12:20:00,73.2,69.4,29.83,SE,145,6.0,15.0,88,0.00,,---,0.00,44.00,VWS V14.01,2013-01-29 18:20:00,
2013-01-29 12:24:00,73.2,69.4,29.83,SE,134,9.0,15.0,88,0.00,,---,0.00,97.00,VWS V14.01,2013-01-29 18:24:00,
2013-01-29 12:25:00,73.2,69.4,29.83,ESE,116,2.0,15.0,88,0.00,,---,0.00,98.00,VWS V14.01,2013-01-29 18:25:00,
2013-01-29 12:27:00,73.2,69.4,29.82,South,170,9.0,15.0,88,0.00,,---,0.00,105.00,VWS V14.01,2013-01-29 18:27:00,
2013-01-29 12:29:00,73.2,69.4,29.82,SSW,199,9.0,9.0,88,0.00,,---,0.00,163.00,VWS V14.01,2013-01-29 18:29:00,
2013-01-29 12:30:00,73.2,69.4,29.82,South,175,6.0,15.0,88,0.00,,---,0.00,163.00,VWS V14.01,2013-01-29 18:30:00,
2013-01-29 12:31:00,73.3,69.5,29.82,SE,146,6.0,9.0,88,0.00,,---,0.00,114.00,VWS V14.01,2013-01-29 18:31:00,
2013-01-29 12:32:00,73.3,69.5,29.82,SSE,155,7.0,12.0,88,0.00,,---,0.00,139.00,VWS V14.01,2013-01-29 18:32:00,
2013-01-29 12:35:00,73.2,69.4,29.81,SE,126,7.0,12.0,88,0.00,,---,0.00,83.00,VWS V14.01,2013-01-29 18:35:00,
2013-01-29 12:36:00,73.2,69.4,29.82,SSE,163,8.0,13.0,88,0.00,,---,0.00,128.00,VWS V14.01,2013-01-29 18:36:00,
2013-01-29 12:37:00,73.1,69.3,29.81,SSE,155,4.0,13.0,88,0.00,,---,0.00,128.00,VWS V14.01,2013-01-29 18:37:00,
2013-01-29 12:38:00,73.1,69.3,29.81,SSE,160,5.0,13.0,88,0.00,,---,0.00,109.00,VWS V14.01,2013-01-29 18:38:00,
2013-01-29 12:40:00,73.1,69.3,29.81,South,179,2.0,13.0,88,0.00,,---,0.00,146.00,VWS V14.01,2013-01-29 18:40:00,
2013-01-29 12:42:00,73.2,69.8,29.81,SSE,167,3.0,13.0,89,0.00,,---,0.00,121.00,VWS V14.01,2013-01-29 18:42:00,
2013-01-29 12:43:00,73.2,69.8,29.81,SSE,163,6.0,13.0,89,0.00,,---,0.00,77.00,VWS V14.01,2013-01-29 18:43:00,
2013-01-29 12:45:00,73.2,69.4,29.81,SSE,147,10.0,19.0,88,0.00,,---,0.00,90.00,VWS V14.01,2013-01-29 18:45:00,
2013-01-29 12:49:00,73.3,69.5,29.80,SE,130,11.0,19.0,88,0.00,,---,0.00,84.00,VWS V14.01,2013-01-29 18:49:00,
2013-01-29 12:50:00,73.3,69.5,29.80,SE,132,6.0,19.0,88,0.00,,---,0.00,67.00,VWS V14.01,2013-01-29 18:50:00,
2013-01-29 12:54:00,73.3,69.5,29.80,SSW,202,4.0,19.0,88,0.00,,---,0.00,53.00,VWS V14.01,2013-01-29 18:54:00,
2013-01-29 12:55:00,73.3,69.5,29.80,ESE,110,4.0,19.0,88,0.00,,---,0.00,54.00,VWS V14.01,2013-01-29 18:55:00,
2013-01-29 12:56:00,73.3,69.5,29.80,SSW,209,2.0,19.0,88,0.00,,---,0.00,49.00,VWS V14.01,2013-01-29 18:56:00,
2013-01-29 12:57:00,73.3,69.5,29.80,SE,136,6.0,19.0,88,0.00,,---,0.00,63.00,VWS V14.01,2013-01-29 18:57:00,
2013-01-29 13:00:00,73.3,69.5,29.80,SE,136,6.0,8.0,88,0.00,,---,0.00,77.00,VWS V14.01,2013-01-29 19:00:00,
2013-01-29 13:01:00,73.3,69.5,29.79,SSE,156,5.0,8.0,88,0.00,,---,0.00,109.00,VWS V14.01,2013-01-29 19:01:00,
2013-01-29 13:02:00,73.3,69.5,29.79,South,173,14.0,14.0,88,0.00,,---,0.00,104.00,VWS V14.01,2013-01-29 19:02:00,
2013-01-29 13:05:00,73.3,69.5,29.79,SE,144,4.0,14.0,88,0.00,,---,0.00,54.00,VWS V14.01,2013-01-29 19:05:00,
2013-01-29 13:06:00,73.3,69.9,29.79,SW,218,5.0,14.0,89,0.00,,---,0.00,62.00,VWS V14.01,2013-01-29 19:06:00,
2013-01-29 13:07:00,73.3,69.9,29.78,ESE,119,3.0,14.0,89,0.00,,---,0.00,83.00,VWS V14.01,2013-01-29 19:07:00,
2013-01-29 13:08:00,73.2,69.8,29.78,SSE,162,6.0,14.0,89,0.00,,---,0.00,69.00,VWS V14.01,2013-01-29 19:08:00,
2013-01-29 13:11:00,73.1,69.7,29.78,SSE,166,5.0,14.0,89,0.00,,---,0.00,128.00,VWS V14.01,2013-01-29 19:11:00,
2013-01-29 13:12:00,73.1,69.7,29.78,South,185,4.0,14.0,89,0.00,,---,0.00,128.00,VWS V14.01,2013-01-29 19:12:00,
2013-01-29 13:13:00,73.1,70.0,29.78,SE,129,5.0,14.0,90,0.00,,---,0.00,125.00,VWS V14.01,2013-01-29 19:13:00,
2013-01-29 13:17:00,73.2,69.8,29.78,SSW,192,4.0,14.0,89,0.00,,---,0.00,156.00,VWS V14.01,2013-01-29 19:17:00,
2013-01-29 13:18:00,73.2,69.8,29.78,SSE,155,4.0,14.0,89,0.00,,---,0.00,111.00,VWS V14.01,2013-01-29 19:18:00,
2013-01-29 13:19:00,73.2,69.8,29.78,SE,143,1.0,14.0,89,0.00,,---,0.00,95.00,VWS V14.01,2013-01-29 19:19:00,
2013-01-29 13:23:00,73.2,69.8,29.77,SSW,202,4.0,17.0,89,0.00,,---,0.00,58.00,VWS V14.01,2013-01-29 19:23:00,
2013-01-29 13:24:00,73.2,69.8,29.77,SE,126,2.0,17.0,89,0.00,,---,0.00,77.00,VWS V14.01,2013-01-29 19:24:00,
2013-01-29 13:25:00,73.1,69.7,29.77,South,188,2.0,17.0,89,0.00,,---,0.00,63.00,VWS V14.01,2013-01-29 19:25:00,
2013-01-29 13:29:00,73.0,69.9,29.77,SE,142,7.0,17.0,90,0.00,,---,0.00,51.00,VWS V14.01,2013-01-29 19:29:00,
2013-01-29 13:30:00,73.0,69.6,29.77,SSE,161,4.0,5.0,89,0.00,,---,0.00,56.00,VWS V14.01,2013-01-29 19:30:00,
2013-01-29 13:31:00,73.0,69.9,29.76,SE,130,3.0,7.0,90,0.00,,---,0.00,54.00,VWS V14.01,2013-01-29 19:31:00,
2013-01-29 13:34:00,72.9,69.8,29.76,SSE,167,4.0,13.0,90,0.01,,---,0.01,37.00,VWS V14.01,2013-01-29 19:34:00,
2013-01-29 13:35:00,72.9,69.8,29.76,SE,140,2.0,13.0,90,0.01,,---,0.01,53.00,VWS V14.01,2013-01-29 19:35:00,
2013-01-29 13:36:00,72.9,69.8,29.76,SE,144,5.0,13.0,90,0.01,,---,0.01,58.00,VWS V14.01,2013-01-29 19:36:00,
2013-01-29 13:40:00,72.7,69.9,29.76,East,92,5.0,13.0,91,0.01,,---,0.01,42.00,VWS V14.01,2013-01-29 19:40:00,
2013-01-29 13:41:00,72.6,69.8,29.76,South,169,8.0,13.0,91,0.01,,---,0.01,32.00,VWS V14.01,2013-01-29 19:41:00,
2013-01-29 13:43:00,72.5,69.7,29.77,SSE,153,4.0,13.0,91,0.01,,---,0.01,26.00,VWS V14.01,2013-01-29 19:43:00,
2013-01-29 13:45:00,72.4,69.6,29.76,SSE,167,2.0,13.0,91,0.01,,---,0.01,56.00,VWS V14.01,2013-01-29 19:45:00,
2013-01-29 13:48:00,72.3,69.5,29.76,South,179,7.0,13.0,91,0.01,,---,0.01,51.00,VWS V14.01,2013-01-29 19:48:00,
2013-01-29 13:50:00,72.2,69.8,29.76,ESE,103,3.0,13.0,92,0.01,,---,0.01,44.00,VWS V14.01,2013-01-29 19:50:00,
2013-01-29 13:51:00,72.2,69.8,29.76,SE,141,3.0,13.0,92,0.01,,---,0.01,47.00,VWS V14.01,2013-01-29 19:51:00,
2013-01-29 13:53:00,72.2,69.8,29.75,SE,136,3.0,13.0,92,0.01,,---,0.01,56.00,VWS V14.01,2013-01-29 19:53:00,
2013-01-29 13:54:00,72.1,69.7,29.75,ESE,113,5.0,13.0,92,0.01,,---,0.01,70.00,VWS V14.01,2013-01-29 19:54:00,
2013-01-29 13:56:00,72.1,69.7,29.75,South,191,7.0,13.0,92,0.01,,---,0.01,44.00,VWS V14.01,2013-01-29 19:56:00,
2013-01-29 13:58:00,72.0,69.6,29.75,SE,130,5.0,13.0,92,0.01,,---,0.01,49.00,VWS V14.01,2013-01-29 19:58:00,
2013-01-29 13:59:00,72.0,69.6,29.75,South,187,5.0,13.0,92,0.01,,---,0.01,51.00,VWS V14.01,2013-01-29 19:59:00,
2013-01-29 14:00:00,72.0,69.6,29.75,SE,128,4.0,13.0,92,0.01,,---,0.01,53.00,VWS V14.01,2013-01-29 20:00:00,
2013-01-29 14:02:00,72.0,69.6,29.75,SE,139,4.0,11.0,92,0.01,,---,0.01,70.00,VWS V14.01,2013-01-29 20:02:00,
2013-01-29 14:03:00,71.9,69.4,29.75,SE,134,7.0,11.0,92,0.01,,---,0.01,69.00,VWS V14.01,2013-01-29 20:03:00,
2013-01-29 14:05:00,71.9,69.4,29.75,SSE,162,4.0,13.0,92,0.01,,---,0.01,84.00,VWS V14.01,2013-01-29 20:05:00,
2013-01-29 14:07:00,71.9,69.4,29.75,SE,132,5.0,13.0,92,0.01,,---,0.01,77.00,VWS V14.01,2013-01-29 20:07:00,
2013-01-29 14:10:00,71.8,69.7,29.74,SE,126,2.0,13.0,93,0.01,,---,0.01,44.00,VWS V14.01,2013-01-29 20:10:00,
2013-01-29 14:11:00,71.8,69.7,29.74,SE,130,4.0,13.0,93,0.01,,---,0.01,53.00,VWS V14.01,2013-01-29 20:11:00,
2013-01-29 14:12:00,71.8,69.7,29.74,SSE,163,1.0,13.0,93,0.01,,---,0.01,46.00,VWS V14.01,2013-01-29 20:12:00,
2013-01-29 14:13:00,71.8,69.7,29.74,SSE,148,4.0,13.0,93,0.01,,---,0.01,53.00,VWS V14.01,2013-01-29 20:13:00,
2013-01-29 14:16:00,71.7,69.6,29.74,ESE,113,4.0,13.0,93,0.01,,---,0.01,54.00,VWS V14.01,2013-01-29 20:16:00,
2013-01-29 14:17:00,71.7,69.6,29.75,SE,142,4.0,13.0,93,0.01,,---,0.01,44.00,VWS V14.01,2013-01-29 20:17:00,
2013-01-29 14:19:00,71.7,69.6,29.74,SSE,160,4.0,13.0,93,0.01,,---,0.01,51.00,VWS V14.01,2013-01-29 20:19:00,
2013-01-29 14:20:00,71.7,69.6,29.74,South,171,4.0,15.0,93,0.01,,---,0.01,40.00,VWS V14.01,2013-01-29 20:20:00,
2013-01-29 14:21:00,71.7,69.6,29.74,SE,130,8.0,15.0,93,0.01,,---,0.01,49.00,VWS V14.01,2013-01-29 20:21:00,
2013-01-29 14:24:00,71.7,69.6,29.75,South,184,4.0,16.0,93,0.01,,---,0.01,35.00,VWS V14.01,2013-01-29 20:24:00,
2013-01-29 14:28:00,71.7,69.6,29.75,SE,143,2.0,16.0,93,0.01,,---,0.01,42.00,VWS V14.01,2013-01-29 20:28:00,
2013-01-29 14:29:00,71.6,69.5,29.75,SSE,157,6.0,16.0,93,0.01,,---,0.01,39.00,VWS V14.01,2013-01-29 20:29:00,
2013-01-29 14:30:00,71.6,69.5,29.75,SSE,157,6.0,16.0,93,0.01,,---,0.01,39.00,VWS V14.01,2013-01-29 20:30:00,
2013-01-29 14:31:00,71.6,69.5,29.75,SSE,167,3.0,7.0,93,0.01,,---,0.01,30.00,VWS V14.01,2013-01-29 20:31:00,
2013-01-29 14:34:00,71.6,69.8,29.75,SSE,147,2.0,8.0,94,0.01,,---,0.01,53.00,VWS V14.01,2013-01-29 20:34:00,
2013-01-29 14:35:00,71.6,69.8,29.74,SSE,165,6.0,8.0,94,0.01,,---,0.01,53.00,VWS V14.01,2013-01-29 20:35:00,
2013-01-29 14:37:00,71.6,69.8,29.74,South,176,4.0,8.0,94,0.01,,---,0.01,40.00,VWS V14.01,2013-01-29 20:37:00,
2013-01-29 14:40:00,71.6,69.8,29.74,South,178,2.0,13.0,94,0.01,,---,0.01,44.00,VWS V14.01,2013-01-29 20:40:00,
2013-01-29 14:44:00,71.6,69.8,29.74,SSW,205,4.0,13.0,94,0.01,,---,0.01,42.00,VWS V14.01,2013-01-29 20:44:00,
2013-01-29 14:45:00,71.6,69.8,29.73,South,182,4.0,13.0,94,0.01,,---,0.01,53.00,VWS V14.01,2013-01-29 20:45:00,
2013-01-29 14:46:00,71.6,69.8,29.73,SSE,155,5.0,13.0,94,0.01,,---,0.01,47.00,VWS V14.01,2013-01-29 20:46:00,
2013-01-29 14:51:00,71.7,69.9,29.73,SSE,155,4.0,13.0,94,0.01,,---,0.01,60.00,VWS V14.01,2013-01-29 20:51:00,
2013-01-29 14:52:00,71.7,69.9,29.73,SE,134,6.0,13.0,94,0.01,,---,0.01,46.00,VWS V14.01,2013-01-29 20:52:00,
2013-01-29 14:56:00,71.8,70.0,29.73,SE,143,3.0,13.0,94,0.01,,---,0.01,44.00,VWS V14.01,2013-01-29 20:56:00,
2013-01-29 14:57:00,71.8,70.0,29.73,SSE,162,6.0,13.0,94,0.01,,---,0.01,42.00,VWS V14.01,2013-01-29 20:57:00,
2013-01-29 14:59:00,71.8,70.0,29.73,ESE,116,3.0,13.0,94,0.01,,---,0.01,25.00,VWS V14.01,2013-01-29 20:59:00,
2013-01-29 15:00:00,71.8,70.0,29.73,ESE,116,3.0,13.0,94,0.01,,---,0.01,25.00,VWS V14.01,2013-01-29 21:00:00,
2013-01-29 15:02:00,71.9,69.8,29.73,SSE,151,4.0,14.0,93,0.00,,---,0.01,16.00,VWS V14.01,2013-01-29 21:02:00,
2013-01-29 15:08:00,71.9,70.1,29.73,SE,139,4.0,14.0,94,0.02,,---,0.03,39.00,VWS V14.01,2013-01-29 21:08:00,
2013-01-29 15:10:00,71.9,70.1,29.73,SE,144,7.0,14.0,94,0.02,,---,0.03,49.00,VWS V14.01,2013-01-29 21:10:00,
2013-01-29 15:13:00,71.8,70.0,29.73,East,99,5.0,14.0,94,0.02,,---,0.03,83.00,VWS V14.01,2013-01-29 21:13:00,
2013-01-29 15:14:00,71.8,70.0,29.73,ESE,106,8.0,14.0,94,0.02,,---,0.03,67.00,VWS V14.01,2013-01-29 21:14:00,
2013-01-29 15:15:00,71.8,70.0,29.72,SSE,161,6.0,14.0,94,0.02,,---,0.03,70.00,VWS V14.01,2013-01-29 21:15:00,
2013-01-29 15:18:00,71.8,70.0,29.73,SSE,156,3.0,15.0,94,0.02,,---,0.03,44.00,VWS V14.01,2013-01-29 21:18:00,
2013-01-29 15:19:00,71.8,70.0,29.73,SE,135,4.0,15.0,94,0.02,,---,0.03,42.00,VWS V14.01,2013-01-29 21:19:00,
2013-01-29 15:20:00,71.8,70.0,29.73,SSE,164,1.0,15.0,94,0.02,,---,0.03,54.00,VWS V14.01,2013-01-29 21:20:00,
2013-01-29 15:24:00,71.8,70.0,29.72,SE,142,6.0,15.0,94,0.02,,---,0.03,62.00,VWS V14.01,2013-01-29 21:24:00,
2013-01-29 15:25:00,71.7,69.9,29.73,SW,215,5.0,15.0,94,0.02,,---,0.03,67.00,VWS V14.01,2013-01-29 21:25:00,
2013-01-29 15:26:00,71.8,70.0,29.73,ESE,123,1.0,15.0,94,0.02,,---,0.03,67.00,VWS V14.01,2013-01-29 21:26:00,
2013-01-29 15:29:00,71.8,70.0,29.73,SSW,194,2.0,15.0,94,0.02,,---,0.03,65.00,VWS V14.01,2013-01-29 21:29:00,
2013-01-29 15:30:00,71.8,70.0,29.73,SSW,194,2.0,15.0,94,0.02,,---,0.03,65.00,VWS V14.01,2013-01-29 21:30:00,
2013-01-29 15:31:00,71.8,70.3,29.73,South,177,4.0,10.0,95,0.02,,---,0.03,54.00,VWS V14.01,2013-01-29 21:31:00,
2013-01-29 15:32:00,71.8,70.3,29.73,SE,146,2.0,10.0,95,0.02,,---,0.03,62.00,VWS V14.01,2013-01-29 21:32:00,
2013-01-29 15:35:00,71.8,70.3,29.72,SE,132,4.0,11.0,95,0.02,,---,0.03,39.00,VWS V14.01,2013-01-29 21:35:00,
2013-01-29 15:37:00,71.7,70.2,29.72,ESE,103,7.0,13.0,95,0.02,,---,0.03,65.00,VWS V14.01,2013-01-29 21:37:00,
2013-01-29 15:40:00,71.7,70.2,29.71,SE,128,8.0,13.0,95,0.02,,---,0.03,70.00,VWS V14.01,2013-01-29 21:40:00,
2013-01-29 15:42:00,71.8,70.3,29.71,SSE,154,5.0,13.0,95,0.02,,---,0.03,69.00,VWS V14.01,2013-01-29 21:42:00,
2013-01-29 15:44:00,71.8,70.3,29.71,SE,130,4.0,13.0,95,0.02,,---,0.03,54.00,VWS V14.01,2013-01-29 21:44:00,
2013-01-29 15:45:00,71.8,70.3,29.71,SSE,147,7.0,13.0,95,0.02,,---,0.03,51.00,VWS V14.01,2013-01-29 21:45:00,
2013-01-29 15:48:00,71.8,70.3,29.71,SE,140,4.0,13.0,95,0.02,,---,0.03,46.00,VWS V14.01,2013-01-29 21:48:00,
2013-01-29 15:49:00,71.8,70.3,29.71,SE,130,6.0,13.0,95,0.02,,---,0.03,79.00,VWS V14.01,2013-01-29 21:49:00,
2013-01-29 15:51:00,71.7,70.2,29.71,SSW,202,4.0,13.0,95,0.02,,---,0.03,69.00,VWS V14.01,2013-01-29 21:51:00,
2013-01-29 15:53:00,71.8,70.3,29.70,SSE,155,11.0,13.0,95,0.02,,---,0.03,84.00,VWS V14.01,2013-01-29 21:53:00,
2013-01-29 15:55:00,71.8,70.3,29.70,SE,134,11.0,13.0,95,0.02,,---,0.03,84.00,VWS V14.01,2013-01-29 21:55:00,
2013-01-29 15:56:00,71.8,70.3,29.70,SSW,193,5.0,15.0,95,0.02,,---,0.03,113.00,VWS V14.01,2013-01-29 21:56:00,
2013-01-29 15:58:00,71.9,70.4,29.70,SSE,164,4.0,15.0,95,0.02,,---,0.03,86.00,VWS V14.01,2013-01-29 21:58:00,
2013-01-29 16:00:00,71.9,70.4,29.70,SSE,149,7.0,7.0,95,0.02,,---,0.03,83.00,VWS V14.01,2013-01-29 22:00:00,
2013-01-29 16:02:00,72.0,70.5,29.70,South,178,3.0,9.0,95,0.02,,---,0.03,105.00,VWS V14.01,2013-01-29 22:02:00,
2013-01-29 16:03:00,72.0,70.5,29.71,SE,137,5.0,9.0,95,0.02,,---,0.03,109.00,VWS V14.01,2013-01-29 22:03:00,
2013-01-29 16:06:00,72.1,70.6,29.71,SSE,151,5.0,15.0,95,0.02,,---,0.03,97.00,VWS V14.01,2013-01-29 22:06:00,
2013-01-29 16:09:00,72.2,70.7,29.71,SE,143,8.0,15.0,95,0.02,,---,0.03,77.00,VWS V14.01,2013-01-29 22:09:00,
2013-01-29 16:11:00,72.3,70.8,29.70,ESE,119,15.0,15.0,95,0.02,,---,0.03,84.00,VWS V14.01,2013-01-29 22:11:00,
2013-01-29 16:14:00,72.4,70.6,29.70,SSE,157,3.0,15.0,94,0.02,,---,0.03,100.00,VWS V14.01,2013-01-29 22:14:00,
2013-01-29 16:16:00,72.5,70.7,29.70,SE,128,4.0,15.0,94,0.02,,---,0.03,98.00,VWS V14.01,2013-01-29 22:16:00,
2013-01-29 16:17:00,72.5,70.7,29.70,SSE,155,6.0,15.0,94,0.02,,---,0.03,97.00,VWS V14.01,2013-01-29 22:17:00,
2013-01-29 16:18:00,72.5,70.7,29.70,SW,221,8.0,15.0,94,0.02,,---,0.03,95.00,VWS V14.01,2013-01-29 22:18:00,
2013-01-29 16:19:00,72.6,70.8,29.70,South,184,3.0,15.0,94,0.02,,---,0.03,97.00,VWS V14.01,2013-01-29 22:19:00,
2013-01-29 16:23:00,72.7,70.9,29.70,SE,136,3.0,15.0,94,0.02,,---,0.03,116.00,VWS V14.01,2013-01-29 22:23:00,
2013-01-29 16:25:00,72.8,71.0,29.70,SSW,211,5.0,15.0,94,0.02,,---,0.03,65.00,VWS V14.01,2013-01-29 22:25:00,
2013-01-29 16:26:00,72.8,71.0,29.70,SE,138,3.0,15.0,94,0.02,,---,0.03,58.00,VWS V14.01,2013-01-29 22:26:00,
2013-01-29 16:28:00,72.8,70.7,29.70,SSE,153,7.0,15.0,93,0.02,,---,0.03,25.00,VWS V14.01,2013-01-29 22:28:00,
2013-01-29 16:30:00,72.8,70.7,29.70,SSE,148,3.0,15.0,93,0.02,,---,0.03,32.00,VWS V14.01,2013-01-29 22:30:00,
2013-01-29 16:31:00,72.7,70.6,29.70,SW,219,7.0,9.0,93,0.00,,---,0.03,47.00,VWS V14.01,2013-01-29 22:31:00,
2013-01-29 16:32:00,72.7,70.6,29.70,SE,139,4.0,9.0,93,0.00,,---,0.03,44.00,VWS V14.01,2013-01-29 22:32:00,
2013-01-29 16:33:00,72.7,70.6,29.69,SE,126,12.0,12.0,93,0.00,,---,0.03,33.00,VWS V14.01,2013-01-29 22:33:00,
2013-01-29 16:35:00,72.7,70.6,29.70,SSE,154,4.0,14.0,93,0.00,,---,0.03,28.00,VWS V14.01,2013-01-29 22:35:00,
2013-01-29 16:36:00,72.7,70.6,29.69,SE,140,6.0,18.0,93,0.00,,---,0.03,28.00,VWS V14.01,2013-01-29 22:36:00,
2013-01-29 16:39:00,72.7,70.6,29.69,South,186,5.0,18.0,93,0.00,,---,0.03,30.00,VWS V14.01,2013-01-29 22:39:00,
2013-01-29 16:40:00,72.7,70.6,29.69,SE,146,11.0,18.0,93,0.00,,---,0.03,21.00,VWS V14.01,2013-01-29 22:40:00,
2013-01-29 16:42:00,72.7,70.6,29.69,SE,144,11.0,18.0,93,0.00,,---,0.03,21.00,VWS V14.01,2013-01-29 22:42:00,
2013-01-29 16:43:00,72.7,70.6,29.69,SE,132,7.0,18.0,93,0.00,,---,0.03,23.00,VWS V14.01,2013-01-29 22:43:00,
2013-01-29 16:46:00,72.7,70.6,29.69,ESE,106,3.0,18.0,93,0.00,,---,0.03,28.00,VWS V14.01,2013-01-29 22:46:00,
2013-01-29 16:47:00,72.7,70.2,29.69,ESE,120,3.0,18.0,92,0.00,,---,0.03,23.00,VWS V14.01,2013-01-29 22:47:00,
2013-01-29 16:48:00,72.7,70.6,29.69,SE,144,12.0,18.0,93,0.00,,---,0.03,23.00,VWS V14.01,2013-01-29 22:48:00,
2013-01-29 16:50:00,72.7,70.2,29.69,ESE,109,7.0,18.0,92,0.00,,---,0.03,25.00,VWS V14.01,2013-01-29 22:50:00,
2013-01-29 16:52:00,72.7,70.2,29.69,SSE,149,5.0,18.0,92,0.00,,---,0.03,28.00,VWS V14.01,2013-01-29 22:52:00,
2013-01-29 16:53:00,72.7,70.2,29.69,SE,127,8.0,18.0,92,0.00,,---,0.03,28.00,VWS V14.01,2013-01-29 22:53:00,
2013-01-29 16:55:00,72.7,70.2,29.69,SE,142,5.0,18.0,92,0.00,,---,0.03,25.00,VWS V14.01,2013-01-29 22:55:00,
2013-01-29 16:57:00,72.7,70.2,29.69,SE,135,8.0,18.0,92,0.00,,---,0.03,18.00,VWS V14.01,2013-01-29 22:57:00,
2013-01-29 16:58:00,72.7,70.2,29.69,South,177,2.0,18.0,92,0.00,,---,0.03,21.00,VWS V14.01,2013-01-29 22:58:00,
2013-01-29 17:00:00,72.7,70.2,29.69,SE,129,7.0,18.0,92,0.00,,---,0.03,19.00,VWS V14.01,2013-01-29 23:00:00,
2013-01-29 17:01:00,72.7,70.2,29.69,SE,135,6.0,8.0,92,0.00,,---,0.03,19.00,VWS V14.01,2013-01-29 23:01:00,
2013-01-29 17:02:00,72.7,70.2,29.69,ESE,114,1.0,8.0,92,0.00,,---,0.03,21.00,VWS V14.01,2013-01-29 23:02:00,
2013-01-29 17:03:00,72.7,70.2,29.69,South,184,8.0,8.0,92,0.00,,---,0.03,21.00,VWS V14.01,2013-01-29 23:03:00,
2013-01-29 17:06:00,72.7,70.2,29.69,SE,132,4.0,14.0,92,0.00,,---,0.03,12.00,VWS V14.01,2013-01-29 23:06:00,
2013-01-29 17:07:00,72.6,70.2,29.69,ESE,115,12.0,14.0,92,0.00,,---,0.03,11.00,VWS V14.01,2013-01-29 23:07:00,
2013-01-29 17:08:00,72.6,70.2,29.69,SE,145,7.0,14.0,92,0.00,,---,0.03,11.00,VWS V14.01,2013-01-29 23:08:00,
2013-01-29 17:09:00,72.6,70.2,29.69,SSE,158,6.0,14.0,92,0.00,,---,0.03,11.00,VWS V14.01,2013-01-29 23:09:00,
2013-01-29 17:12:00,72.6,70.2,29.69,South,182,10.0,17.0,92,0.00,,---,0.03,11.00,VWS V14.01,2013-01-29 23:12:00,
2013-01-29 17:14:00,72.7,70.2,29.69,SSE,150,7.0,17.0,92,0.00,,---,0.03,11.00,VWS V14.01,2013-01-29 23:14:00,
2013-01-29 17:15:00,72.7,70.2,29.68,SSE,163,6.0,17.0,92,0.00,,---,0.03,11.00,VWS V14.01,2013-01-29 23:15:00,
2013-01-29 17:18:00,72.6,70.2,29.68,SSE,149,6.0,17.0,92,0.00,,---,0.03,9.00,VWS V14.01,2013-01-29 23:18:00,
2013-01-29 17:20:00,72.6,70.2,29.68,South,184,2.0,17.0,92,0.00,,---,0.03,18.00,VWS V14.01,2013-01-29 23:20:00,
2013-01-29 17:21:00,72.6,70.2,29.68,SE,126,5.0,17.0,92,0.00,,---,0.03,14.00,VWS V14.01,2013-01-29 23:21:00,
2013-01-29 17:22:00,72.5,70.1,29.68,SE,146,10.0,17.0,92,0.00,,---,0.03,11.00,VWS V14.01,2013-01-29 23:22:00,
2013-01-29 17:23:00,72.5,70.1,29.68,SSE,165,5.0,17.0,92,0.00,,---,0.03,9.00,VWS V14.01,2013-01-29 23:23:00,
2013-01-29 17:26:00,72.5,70.1,29.68,SW,217,5.0,17.0,92,0.00,,---,0.03,9.00,VWS V14.01,2013-01-29 23:26:00,
2013-01-29 17:27:00,72.6,70.2,29.68,East,88,6.0,17.0,92,0.00,,---,0.03,9.00,VWS V14.01,2013-01-29 23:27:00,
2013-01-29 17:28:00,72.6,70.2,29.68,SSE,155,9.0,17.0,92,0.00,,---,0.03,7.00,VWS V14.01,2013-01-29 23:28:00,
2013-01-29 17:29:00,72.5,70.1,29.68,South,188,1.0,17.0,92,0.00,,---,0.03,5.00,VWS V14.01,2013-01-29 23:29:00,
2013-01-29 17:30:00,72.5,70.1,29.68,SSE,147,4.0,17.0,92,0.00,,---,0.03,5.00,VWS V14.01,2013-01-29 23:30:00,
2013-01-29 17:32:00,72.4,69.9,29.68,South,173,1.0,13.0,92,0.00,,---,0.03,0.00,VWS V14.01,2013-01-29 23:32:00,
2013-01-29 17:33:00,72.4,69.9,29.68,SE,140,6.0,13.0,92,0.00,,---,0.03,0.00,VWS V14.01,2013-01-29 23:33:00,
2013-01-29 17:34:00,72.4,69.9,29.68,SSE,153,3.0,13.0,92,0.00,,---,0.03,0.00,VWS V14.01,2013-01-29 23:34:00,
2013-01-29 17:38:00,72.3,70.2,29.69,SE,142,3.0,13.0,93,0.00,,---,0.03,0.00,VWS V14.01,2013-01-29 23:38:00,
2013-01-29 17:39:00,72.2,70.1,29.68,SE,146,4.0,13.0,93,0.00,,---,0.03,0.00,VWS V14.01,2013-01-29 23:39:00,
2013-01-29 17:40:00,72.2,70.1,29.69,South,188,5.0,13.0,93,0.00,,---,0.03,0.00,VWS V14.01,2013-01-29 23:40:00,
2013-01-29 17:44:00,72.2,70.1,29.69,SSE,152,8.0,13.0,93,0.00,,---,0.03,0.00,VWS V14.01,2013-01-29 23:44:00,
2013-01-29 17:45:00,72.2,70.1,29.69,SSE,157,5.0,13.0,93,0.01,,---,0.04,0.00,VWS V14.01,2013-01-29 23:45:00,
2013-01-29 17:46:00,72.2,70.1,29.69,SSE,154,5.0,13.0,93,0.01,,---,0.04,0.00,VWS V14.01,2013-01-29 23:46:00,
2013-01-29 17:50:00,72.1,70.0,29.68,South,182,6.0,13.0,93,0.01,,---,0.04,0.00,VWS V14.01,2013-01-29 23:50:00,
2013-01-29 17:51:00,72.1,70.0,29.68,SE,146,2.0,13.0,93,0.01,,---,0.04,0.00,VWS V14.01,2013-01-29 23:51:00,
2013-01-29 17:52:00,72.1,70.0,29.68,South,174,4.0,13.0,93,0.01,,---,0.04,0.00,VWS V14.01,2013-01-29 23:52:00,
2013-01-29 17:54:00,72.0,69.9,29.69,ESE,122,7.0,14.0,93,0.01,,---,0.04,0.00,VWS V14.01,2013-01-29 23:54:00,
2013-01-29 17:55:00,72.0,69.9,29.69,SSE,165,0.0,14.0,93,0.01,,---,0.04,0.00,VWS V14.01,2013-01-29 23:55:00,
2013-01-29 17:59:00,72.0,69.9,29.68,South,178,5.0,14.0,93,0.01,,---,0.04,0.00,VWS V14.01,2013-01-29 23:59:00,
2013-01-29 18:00:00,72.0,69.9,29.68,SSE,150,5.0,14.0,93,0.01,,---,0.04,0.00,VWS V14.01,2013-01-30 00:00:00,
2013-01-29 18:02:00,71.9,70.1,29.68,SSE,154,9.0,13.0,94,0.01,,---,0.04,0.00,VWS V14.01,2013-01-30 00:02:00,
2013-01-29 18:04:00,71.9,70.1,29.68,SE,140,1.0,13.0,94,0.01,,---,0.04,0.00,VWS V14.01,2013-01-30 00:04:00,
2013-01-29 18:05:00,71.9,70.1,29.68,SE,130,4.0,13.0,94,0.01,,---,0.04,0.00,VWS V14.01,2013-01-30 00:05:00,
2013-01-29 18:07:00,71.9,70.1,29.68,SSE,165,2.0,13.0,94,0.01,,---,0.04,0.00,VWS V14.01,2013-01-30 00:07:00,
2013-01-29 18:10:00,71.9,70.1,29.68,SSE,150,8.0,13.0,94,0.01,,---,0.04,0.00,VWS V14.01,2013-01-30 00:10:00,
2013-01-29 18:11:00,71.9,70.1,29.69,SSE,163,5.0,13.0,94,0.01,,---,0.04,0.00,VWS V14.01,2013-01-30 00:11:00,
2013-01-29 18:12:00,71.9,70.1,29.69,SSE,149,12.0,14.0,94,0.01,,---,0.04,0.00,VWS V14.01,2013-01-30 00:12:00,
2013-01-29 18:15:00,71.9,70.1,29.69,SE,137,6.0,14.0,94,0.01,,---,0.04,0.00,VWS V14.01,2013-01-30 00:15:00,
2013-01-29 18:16:00,71.9,70.1,29.69,SSW,194,5.0,14.0,94,0.01,,---,0.04,0.00,VWS V14.01,2013-01-30 00:16:00,
2013-01-29 18:18:00,71.9,70.1,29.69,SE,141,4.0,14.0,94,0.01,,---,0.04,0.00,VWS V14.01,2013-01-30 00:18:00,
2013-01-29 18:20:00,71.9,70.1,29.69,SW,214,10.0,14.0,94,0.01,,---,0.04,0.00,VWS V14.01,2013-01-30 00:20:00,
2013-01-29 18:21:00,71.9,70.1,29.69,SE,142,2.0,14.0,94,0.01,,---,0.04,0.00,VWS V14.01,2013-01-30 00:21:00,
2013-01-29 18:22:00,72.0,70.2,29.69,SE,142,4.0,14.0,94,0.01,,---,0.04,0.00,VWS V14.01,2013-01-30 00:22:00,
2013-01-29 18:24:00,72.0,70.2,29.69,SSE,147,7.0,14.0,94,0.01,,---,0.04,0.00,VWS V14.01,2013-01-30 00:24:00,
2013-01-29 18:26:00,72.0,70.2,29.68,SE,143,6.0,14.0,94,0.01,,---,0.04,0.00,VWS V14.01,2013-01-30 00:26:00,
2013-01-29 18:27:00,72.0,70.2,29.68,SSE,159,2.0,14.0,94,0.01,,---,0.04,0.00,VWS V14.01,2013-01-30 00:27:00,
2013-01-29 18:28:00,72.0,70.2,29.68,SE,128,5.0,14.0,94,0.01,,---,0.04,0.00,VWS V14.01,2013-01-30 00:28:00,
2013-01-29 18:30:00,72.0,70.2,29.68,South,171,3.0,14.0,94,0.01,,---,0.04,0.00,VWS V14.01,2013-01-30 00:30:00,
2013-01-29 18:31:00,72.0,70.2,29.69,South,186,2.0,4.0,94,0.01,,---,0.04,0.00,VWS V14.01,2013-01-30 00:31:00,
2013-01-29 18:32:00,72.0,70.2,29.68,SE,136,3.0,6.0,94,0.01,,---,0.04,0.00,VWS V14.01,2013-01-30 00:32:00,
2013-01-29 18:33:00,72.0,70.2,29.68,ESE,105,5.0,8.0,94,0.01,,---,0.04,0.00,VWS V14.01,2013-01-30 00:33:00,
2013-01-29 18:37:00,72.0,70.2,29.68,SSE,166,6.0,14.0,94,0.01,,---,0.04,0.00,VWS V14.01,2013-01-30 00:37:00,
2013-01-29 18:38:00,72.1,70.3,29.68,South,169,4.0,14.0,94,0.01,,---,0.04,0.00,VWS V14.01,2013-01-30 00:38:00,
2013-01-29 18:39:00,72.0,69.9,29.68,SSW,207,3.0,14.0,93,0.01,,---,0.04,0.00,VWS V14.01,2013-01-30 00:39:00,
2013-01-29 18:43:00,72.1,70.0,29.68,SSE,161,4.0,14.0,93,0.01,,---,0.04,0.00,VWS V14.01,2013-01-30 00:43:00,
2013-01-29 18:44:00,72.0,69.9,29.68,SE,128,4.0,14.0,93,0.01,,---,0.04,0.00,VWS V14.01,2013-01-30 00:44:00,
2013-01-29 18:47:00,72.1,70.0,29.69,South,170,6.0,14.0,93,0.01,,---,0.04,0.00,VWS V14.01,2013-01-30 00:47:00,
2013-01-29 18:49:00,72.1,70.0,29.69,SSE,156,1.0,14.0,93,0.01,,---,0.04,0.00,VWS V14.01,2013-01-30 00:49:00,
2013-01-29 18:50:00,72.1,70.0,29.69,SE,142,5.0,14.0,93,0.01,,---,0.04,0.00,VWS V14.01,2013-01-30 00:50:00,
2013-01-29 18:54:00,72.0,69.9,29.68,SSE,156,10.0,14.0,93,0.01,,---,0.04,0.00,VWS V14.01,2013-01-30 00:54:00,
2013-01-29 18:55:00,72.1,70.0,29.68,SSE,149,3.0,14.0,93,0.01,,---,0.04,0.00,VWS V14.01,2013-01-30 00:55:00,
2013-01-29 18:56:00,72.1,70.0,29.68,South,178,7.0,14.0,93,0.01,,---,0.04,0.00,VWS V14.01,2013-01-30 00:56:00,
2013-01-29 18:59:00,72.1,70.0,29.67,SSE,159,4.0,4.0,93,0.00,,---,0.04,0.00,VWS V14.01,2013-01-30 00:59:00,
2013-01-29 19:00:00,72.1,70.0,29.67,SSE,148,11.0,13.0,93,0.00,,---,0.04,0.00,VWS V14.01,2013-01-30 01:00:00,
2013-01-29 19:01:00,72.1,70.0,29.67,South,175,5.0,13.0,93,0.00,,---,0.04,0.00,VWS V14.01,2013-01-30 01:01:00,
2013-01-29 19:05:00,72.1,70.0,29.67,SSE,164,6.0,15.0,93,0.00,,---,0.04,0.00,VWS V14.01,2013-01-30 01:05:00,
2013-01-29 19:06:00,72.1,70.0,29.68,SE,145,12.0,16.0,93,0.00,,---,0.04,0.00,VWS V14.01,2013-01-30 01:06:00,
2013-01-29 19:07:00,72.1,70.0,29.67,SSW,194,8.0,16.0,93,0.00,,---,0.04,0.00,VWS V14.01,2013-01-30 01:07:00,
2013-01-29 19:11:00,72.2,70.1,29.67,SE,137,6.0,16.0,93,0.00,,---,0.04,0.00,VWS V14.01,2013-01-30 01:11:00,
2013-01-29 19:12:00,72.2,70.1,29.67,SSE,152,7.0,18.0,93,0.00,,---,0.04,0.00,VWS V14.01,2013-01-30 01:12:00,
2013-01-29 19:16:00,72.2,70.1,29.67,SSE,159,6.0,18.0,93,0.00,,---,0.04,0.00,VWS V14.01,2013-01-30 01:16:00,
2013-01-29 19:17:00,72.2,70.1,29.67,ESE,123,9.0,18.0,93,0.00,,---,0.04,0.00,VWS V14.01,2013-01-30 01:17:00,
2013-01-29 19:19:00,72.2,70.1,29.67,SSE,168,4.0,18.0,93,0.00,,---,0.04,0.00,VWS V14.01,2013-01-30 01:19:00,
2013-01-29 19:22:00,72.2,70.1,29.67,SSE,152,5.0,18.0,93,0.00,,---,0.04,0.00,VWS V14.01,2013-01-30 01:22:00,
2013-01-29 19:23:00,72.2,70.1,29.67,SSW,194,6.0,18.0,93,0.00,,---,0.04,0.00,VWS V14.01,2013-01-30 01:23:00,
2013-01-29 19:28:00,72.2,70.1,29.66,SE,145,4.0,18.0,93,0.00,,---,0.04,0.00,VWS V14.01,2013-01-30 01:28:00,
2013-01-29 19:29:00,72.2,70.1,29.67,SSE,166,4.0,18.0,93,0.00,,---,0.04,0.00,VWS V14.01,2013-01-30 01:29:00,
2013-01-29 19:30:00,72.2,70.1,29.67,SSE,162,5.0,18.0,93,0.00,,---,0.04,0.00,VWS V14.01,2013-01-30 01:30:00,
2013-01-29 19:33:00,72.2,69.8,29.67,SW,223,6.0,14.0,92,0.00,,---,0.04,0.00,VWS V14.01,2013-01-30 01:33:00,
2013-01-29 19:34:00,72.3,69.8,29.67,South,185,4.0,14.0,92,0.00,,---,0.04,0.00,VWS V14.01,2013-01-30 01:34:00,
2013-01-29 19:36:00,72.3,69.8,29.68,SSW,213,6.0,19.0,92,0.00,,---,0.04,0.00,VWS V14.01,2013-01-30 01:36:00,
2013-01-29 19:39:00,72.3,69.8,29.68,SE,135,3.0,19.0,92,0.00,,---,0.04,0.00,VWS V14.01,2013-01-30 01:39:00,
2013-01-29 19:41:00,72.3,69.8,29.68,ESE,117,7.0,19.0,92,0.00,,---,0.04,0.00,VWS V14.01,2013-01-30 01:41:00,
2013-01-29 19:43:00,72.3,69.8,29.68,South,178,4.0,19.0,92,0.00,,---,0.04,0.00,VWS V14.01,2013-01-30 01:43:00,
2013-01-29 19:44:00,72.3,69.8,29.68,SSE,158,4.0,19.0,92,0.00,,---,0.04,0.00,VWS V14.01,2013-01-30 01:44:00,
2013-01-29 19:49:00,72.3,69.8,29.69,ESE,113,2.0,19.0,92,0.00,,---,0.04,0.00,VWS V14.01,2013-01-30 01:49:00,
2013-01-29 19:50:00,72.4,69.9,29.69,SW,231,8.0,19.0,92,0.00,,---,0.04,0.00,VWS V14.01,2013-01-30 01:50:00,
2013-01-29 19:51:00,72.4,69.9,29.69,SSE,155,9.0,19.0,92,0.00,,---,0.04,0.00,VWS V14.01,2013-01-30 01:51:00,
2013-01-29 19:54:00,72.4,69.9,29.69,South,182,3.0,19.0,92,0.00,,---,0.04,0.00,VWS V14.01,2013-01-30 01:54:00,
2013-01-29 19:55:00,72.4,69.9,29.69,SE,144,4.0,19.0,92,0.00,,---,0.04,0.00,VWS V14.01,2013-01-30 01:55:00,
2013-01-29 19:57:00,72.4,69.9,29.69,SE,146,8.0,19.0,92,0.00,,---,0.04,0.00,VWS V14.01,2013-01-30 01:57:00,
2013-01-29 20:00:00,72.4,69.9,29.68,SE,145,5.0,7.0,92,0.00,,---,0.04,0.00,VWS V14.01,2013-01-30 02:00:00,
2013-01-29 20:01:00,72.4,69.9,29.68,SE,126,1.0,7.0,92,0.00,,---,0.04,0.00,VWS V14.01,2013-01-30 02:01:00,
2013-01-29 20:02:00,72.4,69.9,29.68,SSW,196,6.0,8.0,92,0.00,,---,0.04,0.00,VWS V14.01,2013-01-30 02:02:00,
2013-01-29 20:03:00,72.4,69.9,29.68,SE,136,10.0,10.0,92,0.00,,---,0.04,0.00,VWS V14.01,2013-01-30 02:03:00,
2013-01-29 20:06:00,72.4,69.9,29.68,South,178,5.0,10.0,92,0.00,,---,0.04,0.00,VWS V14.01,2013-01-30 02:06:00,
2013-01-29 20:07:00,72.4,69.9,29.68,SW,215,5.0,10.0,92,0.00,,---,0.04,0.00,VWS V14.01,2013-01-30 02:07:00,
2013-01-29 20:08:00,72.4,69.9,29.68,SE,133,2.0,10.0,92,0.00,,---,0.04,0.00,VWS V14.01,2013-01-30 02:08:00,
2013-01-29 20:10:00,72.4,69.9,29.69,SSE,151,2.0,10.0,92,0.00,,---,0.04,0.00,VWS V14.01,2013-01-30 02:10:00,
2013-01-29 20:11:00,72.4,69.9,29.69,SSW,195,5.0,10.0,92,0.00,,---,0.04,0.00,VWS V14.01,2013-01-30 02:11:00,
2013-01-29 20:14:00,72.4,69.9,29.69,South,190,4.0,10.0,92,0.00,,---,0.04,0.00,VWS V14.01,2013-01-30 02:14:00,
2013-01-29 20:19:00,72.4,69.9,29.69,SW,219,0.0,11.0,92,0.00,,---,0.04,0.00,VWS V14.01,2013-01-30 02:19:00,
2013-01-29 20:20:00,72.4,69.9,29.69,SSW,196,4.0,11.0,92,0.00,,---,0.04,0.00,VWS V14.01,2013-01-30 02:20:00,
2013-01-29 20:24:00,72.4,69.9,29.69,SSW,212,1.0,11.0,92,0.00,,---,0.04,0.00,VWS V14.01,2013-01-30 02:24:00,
2013-01-29 20:25:00,72.4,69.9,29.69,SSW,194,6.0,11.0,92,0.00,,---,0.04,0.00,VWS V14.01,2013-01-30 02:25:00,
2013-01-29 20:26:00,72.4,69.9,29.69,SSW,194,8.0,11.0,92,0.00,,---,0.04,0.00,VWS V14.01,2013-01-30 02:26:00,
2013-01-29 20:29:00,72.4,69.9,29.69,South,191,4.0,11.0,92,0.00,,---,0.04,0.00,VWS V14.01,2013-01-30 02:29:00,
2013-01-29 20:30:00,72.4,69.9,29.69,SE,131,3.0,3.0,92,0.00,,---,0.04,0.00,VWS V14.01,2013-01-30 02:30:00,
2013-01-29 20:31:00,72.4,69.9,29.69,SE,135,4.0,7.0,92,0.00,,---,0.04,0.00,VWS V14.01,2013-01-30 02:31:00,
2013-01-29 20:35:00,72.5,70.1,29.69,South,169,5.0,10.0,92,0.00,,---,0.04,0.00,VWS V14.01,2013-01-30 02:35:00,
2013-01-29 20:36:00,72.5,69.7,29.69,SSW,194,6.0,14.0,91,0.00,,---,0.04,0.00,VWS V14.01,2013-01-30 02:36:00,
2013-01-29 20:37:00,72.5,69.7,29.69,SE,144,5.0,14.0,91,0.00,,---,0.04,0.00,VWS V14.01,2013-01-30 02:37:00,
2013-01-29 20:41:00,72.6,69.8,29.68,SSE,161,2.0,14.0,91,0.00,,---,0.04,0.00,VWS V14.01,2013-01-30 02:41:00,
2013-01-29 20:43:00,72.6,69.8,29.68,SE,140,5.0,14.0,91,0.00,,---,0.04,0.00,VWS V14.01,2013-01-30 02:43:00,
2013-01-29 20:45:00,72.6,69.8,29.68,SSE,147,4.0,14.0,91,0.00,,---,0.04,0.00,VWS V14.01,2013-01-30 02:45:00,
2013-01-29 20:47:00,72.6,69.8,29.68,SSE,165,3.0,14.0,91,0.00,,---,0.04,0.00,VWS V14.01,2013-01-30 02:47:00,
2013-01-29 20:49:00,72.6,69.8,29.69,SE,142,2.0,14.0,91,0.00,,---,0.04,0.00,VWS V14.01,2013-01-30 02:49:00,
2013-01-29 20:50:00,72.6,69.8,29.68,SSE,157,5.0,14.0,91,0.00,,---,0.04,0.00,VWS V14.01,2013-01-30 02:50:00,
2013-01-29 20:51:00,72.6,69.8,29.69,SSE,160,2.0,14.0,91,0.00,,---,0.04,0.00,VWS V14.01,2013-01-30 02:51:00,
2013-01-29 20:52:00,72.6,69.8,29.69,SSE,161,3.0,14.0,91,0.00,,---,0.04,0.00,VWS V14.01,2013-01-30 02:52:00,
2013-01-29 20:55:00,72.6,69.8,29.69,South,187,3.0,14.0,91,0.00,,---,0.04,0.00,VWS V14.01,2013-01-30 02:55:00,
2013-01-29 20:57:00,72.6,69.8,29.69,ESE,123,4.0,14.0,91,0.00,,---,0.04,0.00,VWS V14.01,2013-01-30 02:57:00,
2013-01-29 21:00:00,72.6,69.8,29.69,South,188,3.0,14.0,91,0.00,,---,0.04,0.00,VWS V14.01,2013-01-30 03:00:00,
2013-01-29 21:01:00,72.6,69.8,29.68,South,180,4.0,7.0,91,0.00,,---,0.04,0.00,VWS V14.01,2013-01-30 03:01:00,
2013-01-29 21:02:00,72.6,69.8,29.68,SSE,160,3.0,7.0,91,0.00,,---,0.04,0.00,VWS V14.01,2013-01-30 03:02:00,
2013-01-29 21:03:00,72.6,69.8,29.68,SE,143,2.0,7.0,91,0.00,,---,0.04,0.00,VWS V14.01,2013-01-30 03:03:00,
2013-01-29 21:07:00,72.6,69.8,29.68,SSE,163,11.0,12.0,91,0.00,,---,0.04,0.00,VWS V14.01,2013-01-30 03:07:00,
2013-01-29 21:08:00,72.7,69.9,29.68,ESE,119,2.0,12.0,91,0.00,,---,0.04,0.00,VWS V14.01,2013-01-30 03:08:00,
2013-01-29 21:09:00,72.7,69.9,29.68,SE,141,8.0,12.0,91,0.00,,---,0.04,0.00,VWS V14.01,2013-01-30 03:09:00,
2013-01-29 21:11:00,72.7,69.9,29.68,SSW,202,2.0,12.0,91,0.00,,---,0.04,0.00,VWS V14.01,2013-01-30 03:11:00,
2013-01-29 21:12:00,72.7,69.9,29.68,ESE,109,3.0,12.0,91,0.00,,---,0.04,0.00,VWS V14.01,2013-01-30 03:12:00,
2013-01-29 21:14:00,72.7,69.9,29.68,SE,143,5.0,12.0,91,0.00,,---,0.04,0.00,VWS V14.01,2013-01-30 03:14:00,
2013-01-29 21:15:00,72.7,69.9,29.68,SSE,157,3.0,12.0,91,0.00,,---,0.04,0.00,VWS V14.01,2013-01-30 03:15:00,
2013-01-29 21:16:00,72.7,69.9,29.68,SSE,160,4.0,12.0,91,0.00,,---,0.04,0.00,VWS V14.01,2013-01-30 03:16:00,
2013-01-29 21:17:00,72.7,69.9,29.68,South,175,3.0,12.0,91,0.00,,---,0.04,0.00,VWS V14.01,2013-01-30 03:17:00,
2013-01-29 21:19:00,72.8,70.0,29.68,SE,124,2.0,12.0,91,0.00,,---,0.04,0.00,VWS V14.01,2013-01-30 03:19:00,
2013-01-29 21:20:00,72.8,70.0,29.68,East,92,3.0,12.0,91,0.00,,---,0.04,0.00,VWS V14.01,2013-01-30 03:20:00,
2013-01-29 21:22:00,72.8,70.0,29.68,SE,143,5.0,12.0,91,0.00,,---,0.04,0.00,VWS V14.01,2013-01-30 03:22:00,
2013-01-29 21:24:00,72.8,70.0,29.68,South,191,4.0,12.0,91,0.00,,---,0.04,0.00,VWS V14.01,2013-01-30 03:24:00,
2013-01-29 21:25:00,72.8,70.0,29.68,South,190,7.0,12.0,91,0.00,,---,0.04,0.00,VWS V14.01,2013-01-30 03:25:00,
2013-01-29 21:26:00,72.8,70.0,29.68,SE,144,5.0,12.0,91,0.00,,---,0.04,0.00,VWS V14.01,2013-01-30 03:26:00,
2013-01-29 21:27:00,72.8,70.0,29.68,SSW,196,2.0,12.0,91,0.00,,---,0.04,0.00,VWS V14.01,2013-01-30 03:27:00,
2013-01-29 21:29:00,72.8,70.0,29.68,SE,145,5.0,12.0,91,0.00,,---,0.04,0.00,VWS V14.01,2013-01-30 03:29:00,
2013-01-29 21:30:00,72.8,70.0,29.68,SE,143,6.0,12.0,91,0.00,,---,0.04,0.00,VWS V14.01,2013-01-30 03:30:00,
2013-01-29 21:31:00,72.8,69.7,29.68,SSE,168,4.0,10.0,90,0.00,,---,0.04,0.00,VWS V14.01,2013-01-30 03:31:00,
2013-01-29 21:33:00,72.8,69.7,29.68,SSE,156,9.0,10.0,90,0.00,,---,0.04,0.00,VWS V14.01,2013-01-30 03:33:00,
2013-01-29 21:34:00,72.9,69.8,29.68,SSE,153,5.0,14.0,90,0.00,,---,0.04,0.00,VWS V14.01,2013-01-30 03:34:00,
2013-01-29 21:35:00,72.9,69.8,29.68,SSW,204,7.0,14.0,90,0.00,,---,0.04,0.00,VWS V14.01,2013-01-30 03:35:00,
2013-01-29 21:37:00,73.0,69.9,29.68,SE,127,5.0,14.0,90,0.00,,---,0.04,0.00,VWS V14.01,2013-01-30 03:37:00,
2013-01-29 21:38:00,73.0,69.9,29.68,ESE,115,1.0,14.0,90,0.00,,---,0.04,0.00,VWS V14.01,2013-01-30 03:38:00,
2013-01-29 21:40:00,73.0,69.9,29.68,South,178,6.0,14.0,90,0.00,,---,0.04,0.00,VWS V14.01,2013-01-30 03:40:00,
2013-01-29 21:41:00,73.0,69.9,29.68,SSE,149,4.0,14.0,90,0.00,,---,0.04,0.00,VWS V14.01,2013-01-30 03:41:00,
2013-01-29 21:44:00,73.0,69.9,29.68,South,181,6.0,14.0,90,0.00,,---,0.04,0.00,VWS V14.01,2013-01-30 03:44:00,
2013-01-29 21:45:00,73.0,69.9,29.68,WSW,239,5.0,14.0,90,0.00,,---,0.04,0.00,VWS V14.01,2013-01-30 03:45:00,
2013-01-29 21:46:00,73.0,69.9,29.68,SE,145,7.0,14.0,90,0.00,,---,0.04,0.00,VWS V14.01,2013-01-30 03:46:00,
2013-01-29 21:47:00,73.0,69.6,29.69,SSE,159,5.0,14.0,89,0.00,,---,0.04,0.00,VWS V14.01,2013-01-30 03:47:00,
2013-01-29 21:51:00,73.2,69.8,29.69,SE,144,3.0,14.0,89,0.00,,---,0.04,0.00,VWS V14.01,2013-01-30 03:51:00,
2013-01-29 21:52:00,73.2,69.8,29.69,SW,223,4.0,14.0,89,0.00,,---,0.04,0.00,VWS V14.01,2013-01-30 03:52:00,
2013-01-29 21:57:00,73.3,69.9,29.69,SSW,198,7.0,18.0,89,0.00,,---,0.04,0.00,VWS V14.01,2013-01-30 03:57:00,
2013-01-29 21:58:00,73.3,69.9,29.70,SW,226,7.0,18.0,89,0.00,,---,0.04,0.00,VWS V14.01,2013-01-30 03:58:00,
2013-01-29 21:59:00,73.3,69.9,29.70,South,187,3.0,18.0,89,0.00,,---,0.04,0.00,VWS V14.01,2013-01-30 03:59:00,
2013-01-29 22:00:00,73.3,69.9,29.70,South,178,6.0,18.0,89,0.00,,---,0.04,0.00,VWS V14.01,2013-01-30 04:00:00,
2013-01-29 22:03:00,73.2,69.8,29.71,SSE,153,7.0,10.0,89,0.00,,---,0.04,0.00,VWS V14.01,2013-01-30 04:03:00,
2013-01-29 22:04:00,73.3,69.9,29.71,SW,216,1.0,10.0,89,0.00,,---,0.04,0.00,VWS V14.01,2013-01-30 04:04:00,
2013-01-29 22:09:00,73.1,69.7,29.72,South,188,3.0,10.0,89,0.00,,---,0.04,0.00,VWS V14.01,2013-01-30 04:09:00,
2013-01-29 22:10:00,73.1,69.7,29.72,WNW,285,4.0,10.0,89,0.00,,---,0.04,0.00,VWS V14.01,2013-01-30 04:10:00,
2013-01-29 22:11:00,73.0,69.6,29.73,WNW,293,3.0,10.0,89,0.00,,---,0.04,0.00,VWS V14.01,2013-01-30 04:11:00,
2013-01-29 22:14:00,71.4,66.3,29.73,West,264,8.0,14.0,84,0.01,,---,0.05,0.00,VWS V14.01,2013-01-30 04:14:00,
2013-01-29 22:15:00,71.2,66.1,29.74,WNW,302,8.0,14.0,84,0.01,,---,0.05,0.00,VWS V14.01,2013-01-30 04:15:00,
2013-01-29 22:16:00,70.4,65.3,29.75,WSW,246,5.0,14.0,84,0.02,,---,0.06,0.00,VWS V14.01,2013-01-30 04:16:00,
2013-01-29 22:20:00,67.8,62.8,29.75,WNW,299,4.0,14.0,84,0.04,,---,0.08,0.00,VWS V14.01,2013-01-30 04:20:00,
2013-01-29 22:21:00,67.0,62.0,29.75,WSW,244,6.0,14.0,84,0.04,,---,0.08,0.00,VWS V14.01,2013-01-30 04:21:00,
2013-01-29 22:22:00,66.7,61.7,29.75,West,273,4.0,14.0,84,0.04,,---,0.08,0.00,VWS V14.01,2013-01-30 04:22:00,
2013-01-29 22:24:00,65.2,60.9,29.76,WNW,302,6.0,14.0,86,0.08,,---,0.12,0.00,VWS V14.01,2013-01-30 04:24:00,
2013-01-29 22:25:00,65.0,61.0,29.76,WNW,292,5.0,14.0,87,0.09,,---,0.13,0.00,VWS V14.01,2013-01-30 04:25:00,
2013-01-29 22:26:00,64.5,60.5,29.76,West,281,3.0,14.0,87,0.10,,---,0.14,0.00,VWS V14.01,2013-01-30 04:26:00,
2013-01-29 22:27:00,64.3,60.3,29.75,West,278,4.0,14.0,87,0.10,,---,0.14,0.00,VWS V14.01,2013-01-30 04:27:00,
2013-01-29 22:30:00,63.5,59.9,29.76,NW,315,1.0,4.0,88,0.11,,---,0.15,0.00,VWS V14.01,2013-01-30 04:30:00,
2013-01-29 22:32:00,63.1,59.8,29.77,NW,307,4.0,4.0,89,0.11,,---,0.15,0.00,VWS V14.01,2013-01-30 04:32:00,
2013-01-29 22:33:00,63.0,59.7,29.77,West,269,3.0,4.0,89,0.11,,---,0.15,0.00,VWS V14.01,2013-01-30 04:33:00,
2013-01-29 22:35:00,62.5,59.5,29.76,North,355,4.0,8.0,90,0.12,,---,0.16,0.00,VWS V14.01,2013-01-30 04:35:00,
2013-01-29 22:37:00,62.1,59.1,29.76,West,277,7.0,8.0,90,0.12,,---,0.16,0.00,VWS V14.01,2013-01-30 04:37:00,
2013-01-29 22:38:00,61.9,58.9,29.76,WNW,286,2.0,9.0,90,0.12,,---,0.16,0.00,VWS V14.01,2013-01-30 04:38:00,
2013-01-29 22:39:00,61.8,59.2,29.76,NW,311,2.0,9.0,91,0.12,,---,0.16,0.00,VWS V14.01,2013-01-30 04:39:00,
2013-01-29 22:42:00,61.4,58.8,29.77,West,263,8.0,9.0,91,0.12,,---,0.16,0.00,VWS V14.01,2013-01-30 04:42:00,
2013-01-29 22:43:00,61.3,58.7,29.77,NW,315,4.0,9.0,91,0.12,,---,0.16,0.00,VWS V14.01,2013-01-30 04:43:00,
2013-01-29 22:46:00,60.8,58.5,29.77,WNW,287,5.0,10.0,92,0.12,,---,0.16,0.00,VWS V14.01,2013-01-30 04:46:00,
2013-01-29 22:48:00,60.3,57.7,29.77,NW,306,4.0,10.0,91,0.13,,---,0.17,0.00,VWS V14.01,2013-01-30 04:48:00,
2013-01-29 22:49:00,60.3,58.0,29.77,West,271,5.0,10.0,92,0.13,,---,0.17,0.00,VWS V14.01,2013-01-30 04:49:00,
2013-01-29 22:53:00,59.9,57.6,29.77,WNW,294,3.0,10.0,92,0.13,,---,0.17,0.00,VWS V14.01,2013-01-30 04:53:00,
2013-01-29 22:54:00,59.8,57.5,29.77,WNW,288,1.0,10.0,92,0.13,,---,0.17,0.00,VWS V14.01,2013-01-30 04:54:00,
2013-01-29 22:55:00,59.6,57.3,29.77,West,267,6.0,10.0,92,0.13,,---,0.17,0.00,VWS V14.01,2013-01-30 04:55:00,
2013-01-29 22:57:00,59.4,57.1,29.77,NW,304,4.0,10.0,92,0.13,,---,0.17,0.00,VWS V14.01,2013-01-30 04:57:00,
2013-01-29 23:00:00,59.2,57.2,29.77,NW,313,2.0,3.0,93,0.13,,---,0.17,0.00,VWS V14.01,2013-01-30 05:00:00,
2013-01-29 23:03:00,59.0,57.0,29.77,NW,322,2.0,6.0,93,0.13,,---,0.17,0.00,VWS V14.01,2013-01-30 05:03:00,
2013-01-29 23:05:00,58.9,56.9,29.77,NW,309,1.0,6.0,93,0.13,,---,0.17,0.00,VWS V14.01,2013-01-30 05:05:00,
2013-01-29 23:06:00,58.8,56.8,29.77,NW,311,1.0,7.0,93,0.14,,---,0.18,0.00,VWS V14.01,2013-01-30 05:06:00,
2013-01-29 23:08:00,58.7,56.7,29.77,WNW,291,1.0,7.0,93,0.14,,---,0.18,0.00,VWS V14.01,2013-01-30 05:08:00,
2013-01-29 23:10:00,58.6,56.9,29.77,WNW,289,5.0,7.0,94,0.14,,---,0.18,0.00,VWS V14.01,2013-01-30 05:10:00,
2013-01-29 23:22:00,58.2,56.5,29.77,NW,305,0.0,7.0,94,0.33,,---,0.37,0.00,VWS V14.01,2013-01-30 05:22:00,
2013-01-29 23:25:00,58.2,56.5,29.77,WNW,288,0.0,7.0,94,0.34,,---,0.38,0.00,VWS V14.01,2013-01-30 05:25:00,
2013-01-29 23:26:00,58.1,56.4,29.78,WNW,288,2.0,7.0,94,0.34,,---,0.38,0.00,VWS V14.01,2013-01-30 05:26:00,
2013-01-29 23:28:00,58.1,56.4,29.77,WNW,288,0.0,7.0,94,0.34,,---,0.38,0.00,VWS V14.01,2013-01-30 05:28:00,
2013-01-29 23:29:00,58.0,56.3,29.78,WNW,288,1.0,7.0,94,0.35,,---,0.39,0.00,VWS V14.01,2013-01-30 05:29:00,
2013-01-29 23:30:00,58.0,56.3,29.78,WNW,288,1.0,1.0,94,0.24,,---,0.39,0.00,VWS V14.01,2013-01-30 05:30:00,
2013-01-29 23:34:00,58.0,56.3,29.77,NW,318,2.0,4.0,94,0.29,,---,0.44,0.00,VWS V14.01,2013-01-30 05:34:00,
2013-01-29 23:35:00,57.9,56.2,29.78,NW,325,0.0,4.0,94,0.30,,---,0.45,0.00,VWS V14.01,2013-01-30 05:35:00,
2013-01-29 23:37:00,57.9,56.2,29.77,NW,325,0.0,4.0,94,0.30,,---,0.45,0.00,VWS V14.01,2013-01-30 05:37:00,
2013-01-29 23:39:00,57.8,56.4,29.78,NW,325,1.0,4.0,95,0.30,,---,0.45,0.00,VWS V14.01,2013-01-30 05:39:00,
2013-01-29 23:40:00,57.8,56.4,29.78,NW,325,1.0,4.0,95,0.30,,---,0.45,0.00,VWS V14.01,2013-01-30 05:40:00,
2013-01-29 23:41:00,57.8,56.4,29.78,NW,325,0.0,4.0,95,0.30,,---,0.45,0.00,VWS V14.01,2013-01-30 05:41:00,
2013-01-29 23:43:00,57.7,56.3,29.78,NW,325,0.0,4.0,95,0.30,,---,0.45,0.00,VWS V14.01,2013-01-30 05:43:00,
2013-01-29 23:44:00,57.7,56.3,29.78,NNW,329,0.0,4.0,95,0.30,,---,0.45,0.00,VWS V14.01,2013-01-30 05:44:00,
2013-01-29 23:45:00,57.7,56.3,29.78,NNW,329,0.0,4.0,95,0.30,,---,0.45,0.00,VWS V14.01,2013-01-30 05:45:00,
2013-01-29 23:46:00,57.7,56.3,29.77,NNW,329,0.0,4.0,95,0.30,,---,0.45,0.00,VWS V14.01,2013-01-30 05:46:00,
2013-01-29 23:49:00,57.6,56.2,29.77,NNW,329,1.0,4.0,95,0.30,,---,0.45,0.00,VWS V14.01,2013-01-30 05:49:00,
2013-01-29 23:50:00,57.6,56.2,29.77,NNW,329,0.0,4.0,95,0.30,,---,0.45,0.00,VWS V14.01,2013-01-30 05:50:00,
2013-01-29 23:51:00,57.6,56.2,29.77,NNW,329,1.0,4.0,95,0.30,,---,0.45,0.00,VWS V14.01,2013-01-30 05:51:00,
2013-01-29 23:56:00,57.6,56.2,29.78,NNW,329,0.0,4.0,95,0.30,,---,0.45,0.00,VWS V14.01,2013-01-30 05:56:00,
2013-01-29 23:57:00,57.6,56.2,29.78,NNW,329,0.0,4.0,95,0.30,,---,0.45,0.00,VWS V14.01,2013-01-30 05:57:00,
2013-01-29 23:58:00,57.6,56.2,29.78,NNW,329,0.0,4.0,95,0.30,,---,0.45,0.00,VWS V14.01,2013-01-30 05:58:00,